AFR980 LFPG-FAOR

Flight info

Callsign AFR980
Flight time 10h 13m
Altitude 37000
Route ERIXU DCT ETAMO DCT ADEKA DCT MOKDI DCT MEN DCT AMLIR DCT FJR DCT OBLAD DCT KAMER UM998 CSO UA605 RIMEL UR985 IMN M999 SEB/N0485F390 M214 GARIN DCT ILDOR UM214 LINUT/N0484F410 UM214 OKLAP/N0489F400 UB540 ETMIT UZ35 ITROL UQ44 AVAGO AVAGO1C
Aircraft A359/H-SDE2E3GHIJ3J4J5LM1ORWXY/LB1D1

Departure

Time 2026-05-03 21:55
Airport Charles de Gaulle International Airport (LFPG)

Arrival

Time 2026-05-04 08:08
Airport O.R. Tambo International Airport (FAOR)
Time Latitude Longitude Altitude Speed Heading
2026-05-03 20:58 49.00139 2.57625 367 ft 0 kts 356°
2026-05-03 21:36 49.00135 2.57625 360 ft 3 kts 356°
2026-05-03 21:36 49.00109 2.57627 360 ft 4 kts 358°
2026-05-03 21:36 49.00082 2.57629 363 ft 2 kts 356°
2026-05-03 21:36 49.00061 2.57626 364 ft 4 kts 43°
2026-05-03 21:37 49.00052 2.57593 366 ft 4 kts 88°
2026-05-03 21:37 49.00052 2.57553 362 ft 3 kts 88°
2026-05-03 21:37 49.00052 2.57546 362 ft 0 kts 86°
2026-05-03 21:43 49.00053 2.57571 366 ft 6 kts 86°
2026-05-03 21:43 49.00058 2.57667 366 ft 12 kts 86°
2026-05-03 21:44 49.00065 2.57821 365 ft 15 kts 85°
2026-05-03 21:44 49.00074 2.57957 364 ft 16 kts 85°
2026-05-03 21:44 49.00078 2.58033 367 ft 16 kts 85°
2026-05-03 21:44 49.00085 2.58147 366 ft 16 kts 84°
2026-05-03 21:45 49.00080 2.58278 369 ft 11 kts 127°
2026-05-03 21:45 49.00032 2.58345 367 ft 7 kts 123°
2026-05-03 21:45 49.00019 2.58421 366 ft 8 kts 96°
2026-05-03 21:45 49.00022 2.58519 363 ft 10 kts 86°
2026-05-03 21:46 49.00028 2.58641 360 ft 13 kts 85°
2026-05-03 21:46 49.00036 2.58781 360 ft 14 kts 85°
2026-05-03 21:46 49.00044 2.58940 360 ft 16 kts 85°
2026-05-03 21:46 49.00054 2.59108 363 ft 16 kts 85°
2026-05-03 21:47 49.00063 2.59284 366 ft 17 kts 84°
2026-05-03 21:47 49.00066 2.59336 365 ft 5 kts 85°
2026-05-03 21:47 49.00069 2.59399 364 ft 7 kts 85°
2026-05-03 21:47 49.00074 2.59491 367 ft 10 kts 85°
2026-05-03 21:48 49.00080 2.59606 365 ft 12 kts 85°
2026-05-03 21:48 49.00085 2.59696 366 ft 13 kts 85°
2026-05-03 21:48 49.00093 2.59847 365 ft 15 kts 85°
2026-05-03 21:48 49.00101 2.59996 366 ft 12 kts 85°
2026-05-03 21:49 49.00107 2.60120 360 ft 10 kts 85°
2026-05-03 21:49 49.00106 2.60172 360 ft 0 kts 103°
2026-05-03 21:49 49.00105 2.60172 360 ft 0 kts 103°
2026-05-03 21:50 49.00102 2.60184 366 ft 3 kts 112°
2026-05-03 21:50 49.00077 2.60232 369 ft 8 kts 144°
2026-05-03 21:50 49.00019 2.60247 366 ft 0 kts 182°
2026-05-03 21:53 49.00006 2.60247 362 ft 5 kts 181°
2026-05-03 21:53 48.99943 2.60241 362 ft 13 kts 190°
2026-05-03 21:54 48.99860 2.60174 360 ft 15 kts 222°
2026-05-03 21:54 48.99820 2.59975 365 ft 33 kts 264°
2026-05-03 21:54 48.99787 2.59353 366 ft 92 kts 265°
2026-05-03 21:54 48.99725 2.58121 367 ft 141 kts 264°
2026-05-03 21:55 48.99642 2.56429 522 ft 166 kts 263°
2026-05-03 21:55 48.99554 2.54732 1132 ft 165 kts 263°
2026-05-03 21:55 48.99452 2.52959 1626 ft 174 kts 263°
2026-05-03 21:55 48.99344 2.51043 1869 ft 188 kts 263°
2026-05-03 21:56 48.99229 2.48977 2020 ft 203 kts 264°
2026-05-03 21:56 48.99105 2.46739 2169 ft 222 kts 264°
2026-05-03 21:56 48.98973 2.44288 2461 ft 241 kts 264°
2026-05-03 21:56 48.98830 2.41700 3037 ft 247 kts 264°
2026-05-03 21:57 48.98686 2.39070 3683 ft 251 kts 264°
2026-05-03 21:57 48.98538 2.36407 4317 ft 254 kts 263°
2026-05-03 21:57 48.98389 2.33722 4965 ft 256 kts 263°
2026-05-03 21:57 48.98240 2.31012 5635 ft 258 kts 263°
2026-05-03 21:58 48.98088 2.28316 6294 ft 260 kts 263°
2026-05-03 21:58 48.97933 2.25559 6953 ft 263 kts 263°
2026-05-03 21:58 48.97775 2.22771 7633 ft 264 kts 263°
2026-05-03 21:58 48.97618 2.19976 8343 ft 266 kts 263°
2026-05-03 21:59 48.97457 2.17148 9052 ft 270 kts 263°
2026-05-03 21:59 48.97293 2.14283 9739 ft 272 kts 263°
2026-05-03 21:59 48.97126 2.11387 10306 ft 280 kts 263°
2026-05-03 21:59 48.96947 2.08339 10589 ft 298 kts 263°
2026-05-03 22:00 48.96595 2.05176 10985 ft 307 kts 251°
2026-05-03 22:00 48.95636 2.02286 11611 ft 308 kts 232°
2026-05-03 22:00 48.94061 2.00092 12292 ft 310 kts 212°
2026-05-03 22:00 48.92050 1.98889 12957 ft 314 kts 192°
2026-05-03 22:01 48.89874 1.98864 13568 ft 322 kts 172°
2026-05-03 22:01 48.87656 1.99474 14165 ft 324 kts 177°
2026-05-03 22:01 48.85407 1.99629 14758 ft 324 kts 182°
2026-05-03 22:01 48.83144 1.99628 15225 ft 326 kts 183°
2026-05-03 22:02 48.80869 1.99605 15603 ft 327 kts 183°
2026-05-03 22:02 48.78587 1.99578 15980 ft 329 kts 183°
2026-05-03 22:02 48.76285 1.99551 16361 ft 331 kts 183°
2026-05-03 22:02 48.73982 1.99524 16754 ft 332 kts 183°
2026-05-03 22:03 48.71664 1.99496 17145 ft 334 kts 183°
2026-05-03 22:03 48.69334 1.99468 17542 ft 335 kts 183°
2026-05-03 22:03 48.66992 1.99478 17999 ft 339 kts 180°
2026-05-03 22:03 48.64641 1.99990 18555 ft 345 kts 168°
2026-05-03 22:04 48.62350 2.01178 19128 ft 349 kts 163°
2026-05-03 22:04 48.60086 2.02535 19694 ft 351 kts 163°
2026-05-03 22:04 48.57845 2.03889 20245 ft 352 kts 163°
2026-05-03 22:04 48.55562 2.05261 20822 ft 353 kts 163°
2026-05-03 22:05 48.53274 2.06628 21364 ft 354 kts 163°
2026-05-03 22:05 48.50970 2.08000 21907 ft 356 kts 164°
2026-05-03 22:05 48.48655 2.09376 22421 ft 358 kts 164°
2026-05-03 22:05 48.46326 2.10757 22975 ft 359 kts 164°
2026-05-03 22:06 48.43997 2.12137 23506 ft 361 kts 165°
2026-05-03 22:06 48.41681 2.13507 23911 ft 363 kts 165°
2026-05-03 22:06 48.39328 2.14896 24371 ft 363 kts 164°
2026-05-03 22:06 48.36962 2.16293 24731 ft 367 kts 164°
2026-05-03 22:07 48.34571 2.17702 25085 ft 370 kts 164°
2026-05-03 22:07 48.32164 2.19122 25488 ft 372 kts 164°
2026-05-03 22:07 48.29729 2.20493 25868 ft 373 kts 167°
2026-05-03 22:07 48.27224 2.21402 26270 ft 370 kts 175°
2026-05-03 22:08 48.24674 2.22046 26664 ft 371 kts 176°
2026-05-03 22:08 48.22121 2.22654 27070 ft 373 kts 176°
2026-05-03 22:08 48.19550 2.23268 27434 ft 376 kts 176°
2026-05-03 22:08 48.16980 2.23883 27720 ft 380 kts 176°
2026-05-03 22:09 48.14365 2.24512 28094 ft 382 kts 176°
2026-05-03 22:09 48.11730 2.25148 28482 ft 384 kts 176°
2026-05-03 22:09 48.09083 2.25765 28831 ft 384 kts 178°
2026-05-03 22:10 48.03711 2.26311 29266 ft 391 kts 185°
2026-05-03 22:10 48.00973 2.26178 29428 ft 395 kts 189°
2026-05-03 22:10 47.98262 2.25752 29549 ft 399 kts 192°
2026-05-03 22:10 47.95479 2.25224 29698 ft 406 kts 192°
2026-05-03 22:11 47.92645 2.24677 29856 ft 412 kts 192°
2026-05-03 22:11 47.89778 2.24122 29997 ft 418 kts 192°
2026-05-03 22:11 47.86859 2.23558 30156 ft 424 kts 192°
2026-05-03 22:11 47.83953 2.22998 30293 ft 429 kts 192°
2026-05-03 22:12 47.80965 2.22422 30432 ft 435 kts 192°
2026-05-03 22:12 47.77944 2.21839 30621 ft 438 kts 192°
2026-05-03 22:12 47.74944 2.21095 30921 ft 436 kts 195°
2026-05-03 22:12 47.71995 2.20094 31276 ft 434 kts 198°
2026-05-03 22:13 47.69119 2.18811 31628 ft 430 kts 203°
2026-05-03 22:13 47.66349 2.17162 31980 ft 427 kts 206°
2026-05-03 22:13 47.63630 2.15393 32331 ft 426 kts 207°
2026-05-03 22:13 47.60915 2.13616 32693 ft 425 kts 207°
2026-05-03 22:14 47.58189 2.11923 33022 ft 425 kts 204°
2026-05-03 22:14 47.55405 2.10563 33327 ft 427 kts 200°
2026-05-03 22:14 47.52538 2.09403 33637 ft 427 kts 199°
2026-05-03 22:14 47.49669 2.08300 33971 ft 425 kts 199°
2026-05-03 22:15 47.46814 2.07217 34339 ft 422 kts 199°
2026-05-03 22:15 47.43965 2.06133 34486 ft 424 kts 199°
2026-05-03 22:15 47.41103 2.05038 34588 ft 426 kts 199°
2026-05-03 22:15 47.38225 2.03932 34751 ft 427 kts 199°
2026-05-03 22:16 47.35343 2.02817 34879 ft 429 kts 199°
2026-05-03 22:16 47.32456 2.01683 34984 ft 430 kts 199°
2026-05-03 22:16 47.29559 2.00538 35148 ft 431 kts 199°
2026-05-03 22:16 47.26657 1.99388 35302 ft 432 kts 199°
2026-05-03 22:17 47.23748 1.98230 35434 ft 433 kts 199°
2026-05-03 22:17 47.20864 1.97079 35564 ft 435 kts 199°
2026-05-03 22:17 47.17942 1.95910 35709 ft 435 kts 199°
2026-05-03 22:17 47.15013 1.94731 35836 ft 436 kts 199°
2026-05-03 22:18 47.12087 1.93531 35965 ft 437 kts 199°
2026-05-03 22:18 47.09155 1.92321 36095 ft 438 kts 199°
2026-05-03 22:18 47.06210 1.91102 36217 ft 439 kts 199°
2026-05-03 22:18 47.03274 1.89884 36347 ft 440 kts 199°
2026-05-03 22:19 47.00321 1.88657 36461 ft 441 kts 199°
2026-05-03 22:19 46.97366 1.87429 36581 ft 442 kts 199°
2026-05-03 22:19 46.94328 1.86648 36633 ft 449 kts 185°
2026-05-03 22:19 46.91199 1.87143 36734 ft 459 kts 169°
2026-05-03 22:20 46.88133 1.88581 36849 ft 463 kts 165°
2026-05-03 22:20 46.82156 1.92095 36993 ft 468 kts 161°
2026-05-03 22:21 46.76237 1.96068 36996 ft 468 kts 160°
2026-05-03 22:21 46.70349 2.00165 37001 ft 469 kts 159°
2026-05-03 22:22 46.64458 2.04268 36991 ft 468 kts 159°
2026-05-03 22:22 46.58605 2.08313 37001 ft 468 kts 159°
2026-05-03 22:23 46.52717 2.12356 37002 ft 467 kts 159°
2026-05-03 22:23 46.46833 2.16383 37004 ft 467 kts 159°
2026-05-03 22:24 46.40955 2.20398 37004 ft 467 kts 159°
2026-05-03 22:24 46.35075 2.24404 37010 ft 467 kts 159°
2026-05-03 22:25 46.29231 2.28378 37010 ft 467 kts 159°
2026-05-03 22:25 46.23349 2.32369 37009 ft 466 kts 159°
2026-05-03 22:26 46.17463 2.36351 37013 ft 466 kts 159°
2026-05-03 22:26 46.11584 2.40321 37010 ft 467 kts 159°
2026-05-03 22:27 46.05702 2.44282 37021 ft 467 kts 159°
2026-05-03 22:27 45.99802 2.48246 37019 ft 467 kts 159°
2026-05-03 22:28 45.93950 2.52170 37017 ft 467 kts 159°
2026-05-03 22:28 45.88058 2.56113 37026 ft 467 kts 159°
2026-05-03 22:29 45.82169 2.60041 37026 ft 466 kts 159°
2026-05-03 22:29 45.76276 2.63964 37028 ft 466 kts 160°
2026-05-03 22:30 45.70387 2.67876 37020 ft 466 kts 160°
2026-05-03 22:30 45.64508 2.71771 37032 ft 465 kts 160°
2026-05-03 22:31 45.58678 2.75623 37028 ft 464 kts 160°
2026-05-03 22:31 45.52819 2.79490 37026 ft 463 kts 160°
2026-05-03 22:32 45.46960 2.83343 37031 ft 463 kts 160°
2026-05-03 22:32 45.41096 2.87191 37036 ft 464 kts 160°
2026-05-03 22:33 45.35235 2.91030 37038 ft 464 kts 160°
2026-05-03 22:33 45.29400 2.94842 37042 ft 464 kts 160°
2026-05-03 22:34 45.23536 2.98665 37039 ft 464 kts 160°
2026-05-03 22:34 45.17662 3.02487 37045 ft 464 kts 160°
2026-05-03 22:35 45.11793 3.06296 37046 ft 464 kts 160°
2026-05-03 22:35 45.06863 3.09488 37045 ft 465 kts 160°
2026-05-03 22:36 45.01016 3.13268 37049 ft 465 kts 160°
2026-05-03 22:36 44.94930 3.16098 37041 ft 456 kts 174°
2026-05-03 22:37 44.88669 3.16696 37043 ft 449 kts 183°
2026-05-03 22:37 44.82420 3.16626 37048 ft 448 kts 184°
2026-05-03 22:38 44.76176 3.16476 37051 ft 448 kts 184°
2026-05-03 22:38 44.69928 3.16361 37049 ft 448 kts 184°
2026-05-03 22:39 44.63719 3.16275 37049 ft 449 kts 184°
2026-05-03 22:39 44.57478 3.16229 37048 ft 449 kts 183°
2026-05-03 22:40 44.51225 3.16343 37047 ft 449 kts 182°
2026-05-03 22:40 44.45001 3.17598 37049 ft 457 kts 168°
2026-05-03 22:41 44.39179 3.21320 37059 ft 466 kts 153°
2026-05-03 22:41 44.33749 3.26345 37055 ft 469 kts 150°
2026-05-03 22:42 44.28376 3.31550 37057 ft 470 kts 150°
2026-05-03 22:42 44.22996 3.36713 37066 ft 469 kts 150°
2026-05-03 22:43 44.17588 3.41823 37063 ft 469 kts 150°
2026-05-03 22:43 44.12179 3.46920 37066 ft 470 kts 150°
2026-05-03 22:44 44.06753 3.52022 37074 ft 470 kts 150°
2026-05-03 22:44 44.01359 3.57077 37077 ft 470 kts 150°
2026-05-03 22:45 43.95937 3.62147 37082 ft 469 kts 150°
2026-05-03 22:45 43.90507 3.67214 37080 ft 470 kts 150°
2026-05-03 22:46 43.85081 3.72265 37062 ft 470 kts 150°
2026-05-03 22:46 43.79686 3.77278 37064 ft 470 kts 150°
2026-05-03 22:47 43.74250 3.82319 37057 ft 470 kts 150°
2026-05-03 22:47 43.68826 3.87336 37069 ft 469 kts 150°
2026-05-03 22:48 43.63393 3.92350 37064 ft 469 kts 150°
2026-05-03 22:48 43.57916 3.97192 37076 ft 465 kts 156°
2026-05-03 22:49 43.52079 4.01002 37075 ft 463 kts 160°
2026-05-03 22:49 43.46215 4.04548 37073 ft 463 kts 161°
2026-05-03 22:50 43.40297 4.08080 37067 ft 463 kts 160°
2026-05-03 22:50 43.34390 4.11616 37052 ft 463 kts 160°
2026-05-03 22:51 43.28478 4.15162 37061 ft 464 kts 160°
2026-05-03 22:51 43.22552 4.18713 37056 ft 464 kts 160°
2026-05-03 22:52 43.16665 4.22233 37051 ft 463 kts 161°
2026-05-03 22:52 43.10759 4.25756 37048 ft 463 kts 161°
2026-05-03 22:53 43.04852 4.29271 37052 ft 463 kts 161°
2026-05-03 22:53 42.98979 4.32759 37051 ft 463 kts 161°
2026-05-03 22:54 42.93074 4.36259 37039 ft 462 kts 161°
2026-05-03 22:54 42.87167 4.39753 37046 ft 462 kts 161°
2026-05-03 22:55 42.81253 4.43243 37052 ft 462 kts 161°
2026-05-03 22:55 42.75346 4.46722 37048 ft 462 kts 161°
2026-05-03 22:56 42.69475 4.50172 37045 ft 462 kts 161°
2026-05-03 22:56 42.63569 4.53636 37042 ft 462 kts 161°
2026-05-03 22:57 42.57653 4.57099 37035 ft 462 kts 161°
2026-05-03 22:57 42.51741 4.60552 37023 ft 463 kts 161°
2026-05-03 22:58 42.45842 4.63989 37035 ft 465 kts 161°
2026-05-03 22:58 42.39894 4.67449 37034 ft 465 kts 161°
2026-05-03 22:59 42.33948 4.70901 37033 ft 465 kts 161°
2026-05-03 22:59 42.27997 4.74350 37034 ft 466 kts 161°
2026-05-03 23:00 42.22022 4.77803 37033 ft 466 kts 161°
2026-05-03 23:00 42.16045 4.81251 37033 ft 466 kts 161°
2026-05-03 23:01 42.10105 4.84670 37034 ft 470 kts 161°
2026-05-03 23:01 42.04055 4.88143 37034 ft 474 kts 161°
2026-05-03 23:02 41.97965 4.91636 37036 ft 474 kts 161°
2026-05-03 23:02 41.91928 4.95092 37033 ft 474 kts 161°
2026-05-03 23:03 41.85839 4.98568 37030 ft 478 kts 162°
2026-05-03 23:03 41.79642 5.01811 37034 ft 476 kts 167°
2026-05-03 23:04 41.73308 5.04440 37042 ft 475 kts 168°
2026-05-03 23:04 41.66975 5.06951 37044 ft 475 kts 168°
2026-05-03 23:05 41.60629 5.09451 37044 ft 477 kts 168°
2026-05-03 23:05 41.54263 5.11968 37042 ft 477 kts 168°
2026-05-03 23:06 41.47889 5.14492 37042 ft 477 kts 168°
2026-05-03 23:06 41.41518 5.17011 37040 ft 478 kts 169°
2026-05-03 23:07 41.35138 5.19526 37048 ft 478 kts 169°
2026-05-03 23:07 41.28798 5.22021 37048 ft 478 kts 169°
2026-05-03 23:08 41.22407 5.24531 37034 ft 478 kts 169°
2026-05-03 23:08 41.16015 5.27036 37050 ft 479 kts 169°
2026-05-03 23:09 41.09612 5.29540 37052 ft 479 kts 169°
2026-05-03 23:09 41.03206 5.32040 37043 ft 480 kts 169°
2026-05-03 23:10 40.96815 5.34528 37095 ft 484 kts 170°
2026-05-03 23:10 40.90322 5.37050 37327 ft 485 kts 170°
2026-05-03 23:10 40.87082 5.38309 37491 ft 485 kts 170°
2026-05-03 23:11 40.83831 5.39571 37617 ft 485 kts 170°
2026-05-03 23:11 40.80598 5.40824 37749 ft 485 kts 170°
2026-05-03 23:11 40.77365 5.42075 37834 ft 485 kts 171°
2026-05-03 23:12 40.70842 5.44592 37882 ft 489 kts 171°
2026-05-03 23:12 40.67620 5.45835 38060 ft 488 kts 171°
2026-05-03 23:12 40.64360 5.47094 38266 ft 486 kts 171°
2026-05-03 23:12 40.61124 5.48342 38453 ft 484 kts 171°
2026-05-03 23:13 40.57894 5.49586 38666 ft 482 kts 171°
2026-05-03 23:13 40.54682 5.50822 38830 ft 480 kts 171°
2026-05-03 23:13 40.51481 5.52052 38990 ft 478 kts 171°
2026-05-03 23:14 40.45128 5.54483 39057 ft 480 kts 171°
2026-05-03 23:14 40.38688 5.56940 39059 ft 483 kts 171°
2026-05-03 23:15 40.32202 5.59414 39050 ft 486 kts 171°
2026-05-03 23:15 40.25666 5.61904 39058 ft 490 kts 171°
2026-05-03 23:16 40.19102 5.64400 39059 ft 492 kts 171°
2026-05-03 23:16 40.12536 5.66894 39060 ft 491 kts 171°
2026-05-03 23:17 40.06009 5.69368 39056 ft 492 kts 172°
2026-05-03 23:17 39.99406 5.71860 39054 ft 494 kts 171°
2026-05-03 23:18 39.92778 5.74359 39052 ft 496 kts 171°
2026-05-03 23:18 39.86146 5.76856 39048 ft 496 kts 171°
2026-05-03 23:19 39.79493 5.79355 39055 ft 498 kts 171°
2026-05-03 23:19 39.72871 5.81838 39056 ft 498 kts 171°
2026-05-03 23:20 39.66210 5.84331 39057 ft 498 kts 171°
2026-05-03 23:20 39.59546 5.86819 39052 ft 498 kts 172°
2026-05-03 23:21 39.52889 5.89300 39055 ft 498 kts 172°
2026-05-03 23:21 39.46224 5.91778 39054 ft 498 kts 172°
2026-05-03 23:22 39.37360 5.95067 39058 ft 498 kts 172°
2026-05-03 23:22 39.30695 5.97533 39060 ft 498 kts 172°
2026-05-03 23:23 39.24033 5.99994 39055 ft 498 kts 172°
2026-05-03 23:23 39.17372 6.02451 39059 ft 498 kts 172°
2026-05-03 23:24 39.10700 6.04905 39059 ft 498 kts 172°
2026-05-03 23:24 39.04081 6.07336 39050 ft 498 kts 172°
2026-05-03 23:25 38.97372 6.09333 39059 ft 491 kts 178°
2026-05-03 23:25 38.90617 6.10749 39057 ft 492 kts 179°
2026-05-03 23:26 38.83835 6.12074 39055 ft 493 kts 179°
2026-05-03 23:26 38.77050 6.13399 39057 ft 493 kts 179°
2026-05-03 23:27 38.70312 6.14727 39044 ft 493 kts 179°
2026-05-03 23:27 38.63522 6.16067 39052 ft 495 kts 179°
2026-05-03 23:28 38.56707 6.17411 39055 ft 495 kts 179°
2026-05-03 23:28 38.49903 6.18752 39056 ft 495 kts 179°
2026-05-03 23:29 38.43097 6.20089 39058 ft 495 kts 179°
2026-05-03 23:29 38.36286 6.21424 39053 ft 495 kts 179°
2026-05-03 23:30 38.29462 6.22759 39060 ft 495 kts 179°
2026-05-03 23:30 38.22647 6.24090 39058 ft 495 kts 179°
2026-05-03 23:31 38.15876 6.25410 39056 ft 495 kts 179°
2026-05-03 23:31 38.09053 6.26737 39054 ft 495 kts 179°
2026-05-03 23:32 38.02230 6.28062 39025 ft 495 kts 179°
2026-05-03 23:32 37.95413 6.29383 39045 ft 495 kts 179°
2026-05-03 23:33 37.88596 6.30701 39046 ft 495 kts 179°
2026-05-03 23:33 37.81800 6.32014 39054 ft 495 kts 179°
2026-05-03 23:34 37.74968 6.33330 39047 ft 495 kts 179°
2026-05-03 23:34 37.68185 6.34635 39045 ft 496 kts 179°
2026-05-03 23:35 37.61355 6.35946 39040 ft 495 kts 179°
2026-05-03 23:35 37.54541 6.37252 39040 ft 495 kts 179°
2026-05-03 23:36 37.47720 6.38556 39040 ft 496 kts 179°
2026-05-03 23:36 37.40920 6.39854 39042 ft 497 kts 179°
2026-05-03 23:37 37.34086 6.41157 39038 ft 497 kts 179°
2026-05-03 23:37 37.27260 6.42457 39032 ft 496 kts 179°
2026-05-03 23:38 37.20438 6.43754 39042 ft 495 kts 179°
2026-05-03 23:38 37.13637 6.45043 39048 ft 494 kts 179°
2026-05-03 23:39 37.06831 6.46330 39048 ft 495 kts 179°
2026-05-03 23:39 37.00016 6.47618 39052 ft 495 kts 179°
2026-05-03 23:40 36.93190 6.48905 39054 ft 496 kts 179°
2026-05-03 23:40 36.86373 6.50187 39057 ft 495 kts 180°
2026-05-03 23:41 36.79558 6.51466 39058 ft 495 kts 179°
2026-05-03 23:41 36.72747 6.52743 39077 ft 494 kts 179°
2026-05-03 23:42 36.65982 6.54008 39086 ft 494 kts 179°
2026-05-03 23:42 36.59175 6.55282 39090 ft 495 kts 179°
2026-05-03 23:43 36.52368 6.56550 39124 ft 494 kts 179°
2026-05-03 23:43 36.45556 6.57819 39143 ft 494 kts 179°
2026-05-03 23:44 36.38745 6.59085 39155 ft 494 kts 179°
2026-05-03 23:44 36.31990 6.60339 39157 ft 494 kts 179°
2026-05-03 23:45 36.25185 6.61700 39158 ft 497 kts 177°
2026-05-03 23:45 36.18401 6.63482 39156 ft 498 kts 176°
2026-05-03 23:46 36.11630 6.65317 39140 ft 498 kts 176°
2026-05-03 23:46 36.04832 6.67094 39139 ft 497 kts 177°
2026-05-03 23:47 35.98093 6.68814 39138 ft 497 kts 177°
2026-05-03 23:47 35.91315 6.70531 39137 ft 497 kts 177°
2026-05-03 23:48 35.84527 6.72250 39138 ft 497 kts 177°
2026-05-03 23:48 35.77742 6.73967 39139 ft 497 kts 177°
2026-05-03 23:49 35.71002 6.75671 39142 ft 497 kts 177°
2026-05-03 23:49 35.64212 6.77385 39136 ft 497 kts 177°
2026-05-03 23:50 35.58578 6.78804 39148 ft 497 kts 177°
2026-05-03 23:50 35.50645 6.80797 39150 ft 497 kts 176°
2026-05-03 23:51 35.43859 6.82500 39164 ft 497 kts 176°
2026-05-03 23:51 35.37125 6.84188 39162 ft 497 kts 176°
2026-05-03 23:52 35.30321 6.85889 39149 ft 499 kts 176°
2026-05-03 23:52 35.23490 6.87591 39167 ft 501 kts 176°
2026-05-03 23:53 35.16661 6.89296 39168 ft 501 kts 176°
2026-05-03 23:53 35.09827 6.90999 39175 ft 501 kts 176°
2026-05-03 23:54 35.03035 6.92687 39159 ft 500 kts 176°
2026-05-03 23:54 34.96205 6.94382 39181 ft 500 kts 176°
2026-05-03 23:55 34.89373 6.96074 39164 ft 500 kts 176°
2026-05-03 23:55 34.82543 6.97761 39160 ft 500 kts 176°
2026-05-03 23:56 34.75761 6.99445 39148 ft 500 kts 175°
2026-05-03 23:56 34.68957 7.01172 39143 ft 499 kts 175°
2026-05-03 23:57 34.62151 7.02902 39133 ft 499 kts 175°
2026-05-03 23:57 34.55354 7.04620 39133 ft 499 kts 175°
2026-05-03 23:58 34.48556 7.06332 39119 ft 498 kts 175°
2026-05-03 23:58 34.41769 7.08038 39117 ft 498 kts 175°
2026-05-03 23:59 34.35029 7.09730 39116 ft 498 kts 175°
2026-05-03 23:59 34.28229 7.11434 39114 ft 498 kts 175°
2026-05-04 00:00 34.21448 7.13130 39118 ft 498 kts 175°
2026-05-04 00:00 34.14660 7.14826 39118 ft 498 kts 175°
2026-05-04 00:01 34.07860 7.16522 39116 ft 497 kts 175°
2026-05-04 00:01 34.01126 7.18198 39117 ft 497 kts 175°
2026-05-04 00:02 33.94336 7.19885 39116 ft 498 kts 175°
2026-05-04 00:02 33.87545 7.21570 39116 ft 498 kts 175°
2026-05-04 00:03 33.80748 7.23255 39117 ft 498 kts 175°
2026-05-04 00:03 33.73945 7.24938 39091 ft 498 kts 175°
2026-05-04 00:04 33.67182 7.26608 39115 ft 499 kts 175°
2026-05-04 00:04 33.60378 7.28285 39116 ft 499 kts 175°
2026-05-04 00:05 33.53576 7.29960 39117 ft 499 kts 175°
2026-05-04 00:05 33.46768 7.31633 39105 ft 499 kts 175°
2026-05-04 00:06 33.40004 7.33292 39116 ft 500 kts 175°
2026-05-04 00:06 33.33175 7.34965 39116 ft 500 kts 175°
2026-05-04 00:07 33.26347 7.36636 39116 ft 500 kts 175°
2026-05-04 00:07 33.19573 7.38291 39117 ft 500 kts 175°
2026-05-04 00:08 33.12757 7.39953 39116 ft 500 kts 175°
2026-05-04 00:08 33.05934 7.41613 39116 ft 500 kts 175°
2026-05-04 00:09 32.99121 7.43269 39116 ft 500 kts 175°
2026-05-04 00:09 32.92302 7.44924 39098 ft 500 kts 174°
2026-05-04 00:10 32.85474 7.46578 39112 ft 500 kts 174°
2026-05-04 00:10 32.78653 7.48228 39113 ft 500 kts 174°
2026-05-04 00:11 32.71873 7.49866 39114 ft 500 kts 174°
2026-05-04 00:11 32.66180 7.51239 39086 ft 500 kts 174°
2026-05-04 00:12 32.58242 7.53150 39107 ft 500 kts 174°
2026-05-04 00:12 32.52573 7.54514 39109 ft 500 kts 174°
2026-05-04 00:13 32.45750 7.56152 39112 ft 500 kts 174°
2026-05-04 00:13 32.38920 7.57789 39088 ft 500 kts 174°
2026-05-04 00:14 32.32098 7.59422 39101 ft 500 kts 174°
2026-05-04 00:14 32.25305 7.61044 39106 ft 501 kts 174°
2026-05-04 00:15 32.18463 7.62678 39110 ft 502 kts 174°
2026-05-04 00:15 32.11619 7.64309 39092 ft 502 kts 174°
2026-05-04 00:16 32.04755 7.65941 39105 ft 502 kts 174°
2026-05-04 00:16 31.97914 7.67567 39110 ft 502 kts 174°
2026-05-04 00:17 31.91059 7.69193 39104 ft 502 kts 174°
2026-05-04 00:17 31.84204 7.70816 39104 ft 502 kts 174°
2026-05-04 00:18 31.77405 7.72507 39099 ft 505 kts 169°
2026-05-04 00:18 31.70778 7.75490 39100 ft 512 kts 161°
2026-05-04 00:19 31.64272 7.78946 39100 ft 513 kts 160°
2026-05-04 00:19 31.57788 7.82473 39096 ft 513 kts 160°
2026-05-04 00:20 31.51347 7.85951 39091 ft 513 kts 160°
2026-05-04 00:20 31.44852 7.89430 39093 ft 513 kts 160°
2026-05-04 00:21 31.38347 7.92900 39094 ft 513 kts 160°
2026-05-04 00:21 31.31844 7.96364 39093 ft 513 kts 160°
2026-05-04 00:22 31.25342 7.99822 39084 ft 514 kts 160°
2026-05-04 00:22 31.18826 8.03284 39088 ft 514 kts 160°
2026-05-04 00:23 31.12318 8.06737 39085 ft 514 kts 160°
2026-05-04 00:23 31.05846 8.10165 39086 ft 514 kts 160°
2026-05-04 00:24 30.99333 8.13609 39080 ft 514 kts 160°
2026-05-04 00:24 30.92820 8.17049 39080 ft 514 kts 160°
2026-05-04 00:25 30.86304 8.20484 39082 ft 514 kts 160°
2026-05-04 00:25 30.79783 8.23918 39082 ft 514 kts 160°
2026-05-04 00:26 30.73300 8.27326 39081 ft 514 kts 160°
2026-05-04 00:26 30.66784 8.30746 39069 ft 514 kts 160°
2026-05-04 00:27 30.60271 8.34161 39077 ft 514 kts 160°
2026-05-04 00:27 30.53744 8.37576 39080 ft 514 kts 160°
2026-05-04 00:28 30.47216 8.40988 39081 ft 514 kts 160°
2026-05-04 00:28 30.40704 8.44436 39078 ft 515 kts 160°
2026-05-04 00:29 30.34241 8.47892 39077 ft 515 kts 160°
2026-05-04 00:29 30.27719 8.51372 39077 ft 515 kts 160°
2026-05-04 00:30 30.21190 8.54842 39078 ft 515 kts 160°
2026-05-04 00:30 30.14717 8.58275 39079 ft 515 kts 160°
2026-05-04 00:31 30.08205 8.61723 39071 ft 515 kts 160°
2026-05-04 00:31 30.01676 8.65176 39079 ft 515 kts 160°
2026-05-04 00:32 29.95158 8.68618 39076 ft 515 kts 160°
2026-05-04 00:32 29.88631 8.72060 39080 ft 515 kts 160°
2026-05-04 00:33 29.78841 8.77212 39072 ft 516 kts 160°
2026-05-04 00:34 29.72300 8.80648 39076 ft 516 kts 160°
2026-05-04 00:34 29.65796 8.84061 39075 ft 516 kts 160°
2026-05-04 00:35 29.59245 8.87493 39073 ft 516 kts 160°
2026-05-04 00:35 29.52748 8.90892 39057 ft 516 kts 160°
2026-05-04 00:36 29.46209 8.94308 39077 ft 516 kts 160°
2026-05-04 00:36 29.39655 8.97727 39075 ft 516 kts 160°
2026-05-04 00:37 29.33112 9.01135 39077 ft 516 kts 160°
2026-05-04 00:37 29.26564 9.04541 39068 ft 516 kts 160°
2026-05-04 00:38 29.20019 9.07941 39068 ft 517 kts 160°
2026-05-04 00:38 29.13458 9.11344 39078 ft 518 kts 160°
2026-05-04 00:39 29.06891 9.14746 39077 ft 518 kts 160°
2026-05-04 00:39 29.00363 9.18123 39079 ft 518 kts 160°
2026-05-04 00:40 28.93797 9.21514 39077 ft 518 kts 160°
2026-05-04 00:40 28.87208 9.24913 39078 ft 519 kts 160°
2026-05-04 00:41 28.80629 9.28302 39078 ft 519 kts 160°
2026-05-04 00:41 28.74073 9.31674 39079 ft 519 kts 160°
2026-05-04 00:42 28.67491 9.35055 39077 ft 519 kts 161°
2026-05-04 00:42 28.60906 9.38433 39078 ft 519 kts 161°
2026-05-04 00:43 28.54321 9.41807 39080 ft 518 kts 161°
2026-05-04 00:43 28.47745 9.45171 39066 ft 518 kts 161°
2026-05-04 00:44 28.41159 9.48535 39069 ft 518 kts 161°
2026-05-04 00:44 28.34578 9.51892 39066 ft 519 kts 161°
2026-05-04 00:45 28.28031 9.55227 39074 ft 519 kts 161°
2026-05-04 00:45 28.21435 9.58583 39075 ft 519 kts 161°
2026-05-04 00:46 28.14867 9.62030 39066 ft 523 kts 155°
2026-05-04 00:46 28.09060 9.67094 39102 ft 534 kts 135°
2026-05-04 00:46 28.06796 9.70446 39103 ft 538 kts 123°
2026-05-04 00:47 28.05109 9.74244 39102 ft 540 kts 111°
2026-05-04 00:47 28.03067 9.82385 39092 ft 542 kts 103°
2026-05-04 00:48 28.01378 9.90704 39085 ft 543 kts 102°
2026-05-04 00:48 27.99691 9.99036 39079 ft 544 kts 103°
2026-05-04 00:49 27.97943 10.07389 39075 ft 545 kts 103°
2026-05-04 00:49 27.96167 10.15726 39075 ft 544 kts 103°
2026-05-04 00:50 27.94396 10.23996 39076 ft 545 kts 103°
2026-05-04 00:50 27.92597 10.32373 39078 ft 546 kts 103°
2026-05-04 00:51 27.90817 10.40648 39075 ft 546 kts 103°
2026-05-04 00:51 27.89018 10.48986 39077 ft 546 kts 104°
2026-05-04 00:52 27.87210 10.57337 39082 ft 545 kts 104°
2026-05-04 00:52 27.85401 10.65671 39081 ft 546 kts 104°
2026-05-04 00:53 27.83583 10.74014 39087 ft 546 kts 104°
2026-05-04 00:53 27.81775 10.82293 39086 ft 546 kts 104°
2026-05-04 00:54 27.79948 10.90628 39091 ft 546 kts 104°
2026-05-04 00:54 27.78117 10.98959 39089 ft 546 kts 104°
2026-05-04 00:55 27.76279 11.07296 39094 ft 546 kts 104°
2026-05-04 00:55 27.74450 11.15565 39093 ft 546 kts 104°
2026-05-04 00:56 27.72605 11.23881 39088 ft 546 kts 104°
2026-05-04 00:56 27.70750 11.32217 39100 ft 546 kts 104°
2026-05-04 00:57 27.68894 11.40532 39095 ft 547 kts 104°
2026-05-04 00:57 27.67041 11.48810 39099 ft 547 kts 104°
2026-05-04 00:58 27.65169 11.57144 39102 ft 547 kts 104°
2026-05-04 00:58 27.63297 11.65460 39102 ft 547 kts 104°
2026-05-04 00:59 27.61417 11.73784 39101 ft 548 kts 104°
2026-05-04 00:59 27.59530 11.82110 39104 ft 548 kts 104°
2026-05-04 01:00 27.57646 11.90403 39109 ft 548 kts 104°
2026-05-04 01:00 27.55748 11.98732 39109 ft 548 kts 104°
2026-05-04 01:01 27.54166 12.05656 39110 ft 548 kts 105°
2026-05-04 01:01 27.52258 12.13984 39104 ft 550 kts 105°
2026-05-04 01:02 27.50337 12.22339 39113 ft 550 kts 105°
2026-05-04 01:02 27.48423 12.30644 39112 ft 550 kts 105°
2026-05-04 01:03 27.46494 12.38990 39116 ft 550 kts 105°
2026-05-04 01:03 27.44559 12.47337 39115 ft 551 kts 105°
2026-05-04 01:04 27.42618 12.55685 39115 ft 551 kts 105°
2026-05-04 01:04 27.40671 12.64034 39115 ft 551 kts 105°
2026-05-04 01:05 27.38720 12.72372 39119 ft 551 kts 105°
2026-05-04 01:05 27.36774 12.80678 39121 ft 551 kts 105°
2026-05-04 01:06 27.34915 12.89046 39118 ft 551 kts 104°
2026-05-04 01:06 27.33103 12.97437 39121 ft 552 kts 104°
2026-05-04 01:07 27.31274 13.05823 39122 ft 552 kts 104°
2026-05-04 01:07 27.29427 13.14196 39116 ft 552 kts 104°
2026-05-04 01:08 27.27569 13.22571 39125 ft 552 kts 104°
2026-05-04 01:08 27.25718 13.30894 39124 ft 552 kts 104°
2026-05-04 01:09 27.23849 13.39269 39126 ft 552 kts 104°
2026-05-04 01:09 27.21980 13.47627 39126 ft 552 kts 104°
2026-05-04 01:10 27.20102 13.55996 39124 ft 552 kts 105°
2026-05-04 01:10 27.18219 13.64365 39130 ft 552 kts 105°
2026-05-04 01:11 27.16330 13.72732 39127 ft 552 kts 105°
2026-05-04 01:11 27.14438 13.81090 39126 ft 552 kts 105°
2026-05-04 01:12 27.12535 13.89468 39126 ft 552 kts 105°
2026-05-04 01:12 27.10643 13.97780 39126 ft 553 kts 105°
2026-05-04 01:13 27.08733 14.06140 39129 ft 553 kts 105°
2026-05-04 01:13 27.06818 14.14500 39130 ft 553 kts 105°
2026-05-04 01:14 27.04898 14.22861 39127 ft 552 kts 105°
2026-05-04 01:14 27.02987 14.31157 39129 ft 552 kts 105°
2026-05-04 01:15 27.00696 14.39370 39130 ft 550 kts 117°
2026-05-04 01:15 26.98842 14.43080 39130 ft 544 kts 128°
2026-05-04 01:15 26.96451 14.46336 39130 ft 537 kts 140°
2026-05-04 01:15 26.93614 14.49001 39129 ft 528 kts 152°
2026-05-04 01:16 26.90471 14.51084 39130 ft 522 kts 158°
2026-05-04 01:16 26.83987 14.54736 39129 ft 521 kts 160°
2026-05-04 01:17 26.77473 14.58228 39124 ft 521 kts 160°
2026-05-04 01:17 26.70923 14.61776 39106 ft 521 kts 160°
2026-05-04 01:18 26.64435 14.65330 39132 ft 521 kts 160°
2026-05-04 01:18 26.57919 14.68911 39121 ft 522 kts 160°
2026-05-04 01:19 26.51388 14.72496 39121 ft 522 kts 160°
2026-05-04 01:19 26.44870 14.76068 39118 ft 522 kts 160°
2026-05-04 01:20 26.38389 14.79614 39102 ft 522 kts 160°
2026-05-04 01:20 26.31855 14.83184 39116 ft 522 kts 160°
2026-05-04 01:21 26.25328 14.86746 39116 ft 522 kts 160°
2026-05-04 01:21 26.18823 14.90292 39113 ft 522 kts 160°
2026-05-04 01:22 26.12284 14.93851 39117 ft 522 kts 160°
2026-05-04 01:22 26.05754 14.97402 39101 ft 523 kts 161°
2026-05-04 01:23 25.99200 15.00959 39110 ft 524 kts 161°
2026-05-04 01:23 25.92630 15.04523 39107 ft 525 kts 161°
2026-05-04 01:24 25.86105 15.08058 39110 ft 525 kts 161°
2026-05-04 01:24 25.79532 15.11614 39110 ft 524 kts 161°
2026-05-04 01:25 25.72963 15.15164 39108 ft 525 kts 161°
2026-05-04 01:25 25.66388 15.18711 39103 ft 525 kts 161°
2026-05-04 01:26 25.59848 15.22236 39111 ft 525 kts 161°
2026-05-04 01:26 25.53269 15.25778 39108 ft 525 kts 161°
2026-05-04 01:27 25.46685 15.29318 39112 ft 525 kts 161°
2026-05-04 01:27 25.40155 15.32825 39101 ft 525 kts 162°
2026-05-04 01:28 25.33566 15.36359 39113 ft 525 kts 162°
2026-05-04 01:28 25.26992 15.39881 39113 ft 525 kts 162°
2026-05-04 01:29 25.20408 15.43404 39112 ft 525 kts 162°
2026-05-04 01:29 25.13874 15.46895 39114 ft 525 kts 162°
2026-05-04 01:30 25.07258 15.50427 39117 ft 525 kts 162°
2026-05-04 01:30 25.00723 15.53910 39116 ft 525 kts 162°
2026-05-04 01:31 24.94151 15.57410 39118 ft 524 kts 162°
2026-05-04 01:31 24.87579 15.60906 39110 ft 524 kts 162°
2026-05-04 01:32 24.80995 15.64407 39113 ft 524 kts 162°
2026-05-04 01:32 24.74463 15.67896 39112 ft 524 kts 161°
2026-05-04 01:33 24.67890 15.71405 39115 ft 524 kts 162°
2026-05-04 01:33 24.61317 15.74908 39109 ft 524 kts 162°
2026-05-04 01:34 24.54749 15.78404 39106 ft 524 kts 162°
2026-05-04 01:34 24.48216 15.81876 39078 ft 524 kts 162°
2026-05-04 01:35 24.41647 15.85364 39102 ft 524 kts 161°
2026-05-04 01:35 24.35088 15.88843 39104 ft 524 kts 161°
2026-05-04 01:36 24.28523 15.92321 39099 ft 524 kts 162°
2026-05-04 01:36 24.21950 15.95798 39109 ft 524 kts 162°
2026-05-04 01:37 24.15380 15.99271 39092 ft 524 kts 161°
2026-05-04 01:37 24.08824 16.02733 39105 ft 523 kts 162°
2026-05-04 01:38 24.02307 16.06169 39111 ft 523 kts 162°
2026-05-04 01:38 23.95754 16.09621 39108 ft 523 kts 162°
2026-05-04 01:39 23.89203 16.13067 39109 ft 523 kts 162°
2026-05-04 01:39 23.82636 16.16518 39108 ft 522 kts 162°
2026-05-04 01:40 23.76082 16.19958 39096 ft 522 kts 162°
2026-05-04 01:40 23.69572 16.23371 39099 ft 522 kts 162°
2026-05-04 01:41 23.63013 16.26806 39097 ft 523 kts 162°
2026-05-04 01:41 23.56452 16.30239 39097 ft 522 kts 162°
2026-05-04 01:42 23.49886 16.33671 39080 ft 522 kts 162°
2026-05-04 01:42 23.43343 16.37087 39096 ft 521 kts 162°
2026-05-04 01:43 23.36800 16.40499 39094 ft 521 kts 162°
2026-05-04 01:43 23.30283 16.43892 39092 ft 521 kts 162°
2026-05-04 01:44 23.23747 16.47293 39089 ft 521 kts 162°
2026-05-04 01:44 23.17207 16.50692 39073 ft 520 kts 162°
2026-05-04 01:45 23.10668 16.54087 39086 ft 520 kts 162°
2026-05-04 01:45 23.00919 16.59142 39085 ft 519 kts 162°
2026-05-04 01:46 22.94392 16.62521 39086 ft 519 kts 162°
2026-05-04 01:46 22.87858 16.65900 39086 ft 519 kts 162°
2026-05-04 01:47 22.81338 16.69269 39083 ft 519 kts 163°
2026-05-04 01:47 22.74815 16.72635 39081 ft 519 kts 163°
2026-05-04 01:48 22.68329 16.75979 39081 ft 519 kts 163°
2026-05-04 01:48 22.61798 16.79342 39079 ft 519 kts 163°
2026-05-04 01:49 22.56373 16.82134 39078 ft 519 kts 163°
2026-05-04 01:49 22.49845 16.85489 39071 ft 519 kts 163°
2026-05-04 01:50 22.43331 16.88834 39081 ft 518 kts 163°
2026-05-04 01:50 22.36805 16.92181 39081 ft 518 kts 163°
2026-05-04 01:51 22.30327 16.95501 39075 ft 518 kts 163°
2026-05-04 01:51 22.23806 16.98838 39075 ft 518 kts 163°
2026-05-04 01:52 22.17290 17.02170 39062 ft 518 kts 163°
2026-05-04 01:52 22.10788 17.05494 39076 ft 515 kts 163°
2026-05-04 01:53 22.04307 17.08802 39075 ft 515 kts 163°
2026-05-04 01:53 21.97822 17.12104 39074 ft 515 kts 163°
2026-05-04 01:54 21.91355 17.15355 39072 ft 515 kts 164°
2026-05-04 01:54 21.84856 17.18604 39052 ft 514 kts 163°
2026-05-04 01:55 21.78390 17.21843 39079 ft 511 kts 163°
2026-05-04 01:55 21.71948 17.25067 39080 ft 510 kts 164°
2026-05-04 01:56 21.65545 17.28273 39073 ft 510 kts 164°
2026-05-04 01:56 21.59119 17.31480 39077 ft 509 kts 164°
2026-05-04 01:57 21.52708 17.34681 39040 ft 509 kts 163°
2026-05-04 01:57 21.46288 17.37886 39071 ft 508 kts 163°
2026-05-04 01:58 21.39877 17.41081 39076 ft 508 kts 163°
2026-05-04 01:58 21.33453 17.44273 39080 ft 509 kts 163°
2026-05-04 01:59 21.27028 17.47467 39076 ft 509 kts 163°
2026-05-04 01:59 21.20602 17.50661 39085 ft 509 kts 163°
2026-05-04 02:00 21.14219 17.53828 39088 ft 509 kts 163°
2026-05-04 02:00 21.07785 17.57019 39098 ft 509 kts 163°
2026-05-04 02:01 21.01345 17.60209 39093 ft 509 kts 163°
2026-05-04 02:01 20.94923 17.63391 39082 ft 508 kts 163°
2026-05-04 02:02 20.88527 17.66554 39088 ft 509 kts 163°
2026-05-04 02:02 20.82092 17.69730 39074 ft 510 kts 163°
2026-05-04 02:03 20.75641 17.72912 39080 ft 510 kts 163°
2026-05-04 02:03 20.69178 17.76099 39061 ft 512 kts 163°
2026-05-04 02:04 20.62702 17.79289 39064 ft 513 kts 163°
2026-05-04 02:04 20.56209 17.82484 39046 ft 513 kts 163°
2026-05-04 02:05 20.49760 17.85655 39057 ft 513 kts 163°
2026-05-04 02:05 20.43272 17.88842 39033 ft 513 kts 163°
2026-05-04 02:06 20.36779 17.92029 39022 ft 513 kts 163°
2026-05-04 02:06 20.30276 17.95218 39007 ft 513 kts 163°
2026-05-04 02:07 20.23806 17.98386 39008 ft 513 kts 163°
2026-05-04 02:07 20.17287 18.01485 38996 ft 508 kts 168°
2026-05-04 02:08 20.10551 18.03404 39013 ft 498 kts 176°
2026-05-04 02:08 20.03820 18.04889 39000 ft 496 kts 177°
2026-05-04 02:09 19.97021 18.06321 39004 ft 496 kts 177°
2026-05-04 02:09 19.90245 18.07760 38983 ft 497 kts 177°
2026-05-04 02:10 19.83460 18.09216 38977 ft 497 kts 176°
2026-05-04 02:10 19.76720 18.10667 38972 ft 497 kts 176°
2026-05-04 02:11 19.69933 18.12129 38972 ft 498 kts 176°
2026-05-04 02:11 19.63140 18.13589 38951 ft 497 kts 176°
2026-05-04 02:12 19.56346 18.15047 38956 ft 497 kts 176°
2026-05-04 02:12 19.49557 18.16502 38948 ft 498 kts 176°
2026-05-04 02:13 19.42768 18.17955 38949 ft 498 kts 176°
2026-05-04 02:13 19.35971 18.19411 38933 ft 498 kts 176°
2026-05-04 02:14 19.29220 18.20855 38936 ft 498 kts 176°
2026-05-04 02:14 19.22423 18.22308 38927 ft 498 kts 176°
2026-05-04 02:15 19.15630 18.23758 38925 ft 498 kts 176°
2026-05-04 02:15 19.08845 18.25206 38922 ft 497 kts 176°
2026-05-04 02:16 19.02045 18.26655 38929 ft 497 kts 176°
2026-05-04 02:16 18.95258 18.28100 38928 ft 498 kts 176°
2026-05-04 02:17 18.88504 18.29538 38926 ft 497 kts 176°
2026-05-04 02:17 18.81703 18.30983 38924 ft 498 kts 175°
2026-05-04 02:18 18.74912 18.32426 38924 ft 498 kts 175°
2026-05-04 02:18 18.68123 18.33867 38926 ft 498 kts 175°
2026-05-04 02:19 18.61334 18.35307 38927 ft 498 kts 175°
2026-05-04 02:19 18.54579 18.36739 38922 ft 498 kts 175°
2026-05-04 02:20 18.47789 18.38178 38922 ft 497 kts 175°
2026-05-04 02:20 18.41016 18.39611 38913 ft 496 kts 175°
2026-05-04 02:21 18.34226 18.41046 38918 ft 496 kts 175°
2026-05-04 02:21 18.27490 18.42469 38911 ft 496 kts 175°
2026-05-04 02:22 18.20711 18.43900 38908 ft 496 kts 175°
2026-05-04 02:22 18.13953 18.45326 38908 ft 494 kts 174°
2026-05-04 02:23 18.07197 18.46751 38906 ft 493 kts 174°
2026-05-04 02:23 18.00500 18.48160 38901 ft 493 kts 174°
2026-05-04 02:24 17.93770 18.49576 38903 ft 493 kts 174°
2026-05-04 02:24 17.87027 18.50993 38896 ft 493 kts 174°
2026-05-04 02:25 17.80302 18.52406 38897 ft 492 kts 174°
2026-05-04 02:25 17.73627 18.53808 38889 ft 491 kts 174°
2026-05-04 02:26 17.66922 18.55214 38889 ft 491 kts 174°
2026-05-04 02:26 17.60222 18.56619 38884 ft 491 kts 174°
2026-05-04 02:27 17.53509 18.58024 38886 ft 491 kts 174°
2026-05-04 02:27 17.46799 18.59428 38881 ft 492 kts 174°
2026-05-04 02:28 17.40084 18.60833 38883 ft 492 kts 174°
2026-05-04 02:28 17.33418 18.62226 38884 ft 491 kts 174°
2026-05-04 02:29 17.26702 18.63629 38884 ft 492 kts 174°
2026-05-04 02:29 17.19991 18.65029 38878 ft 492 kts 174°
2026-05-04 02:30 17.13282 18.66428 38881 ft 492 kts 174°
2026-05-04 02:30 17.06557 18.67830 38878 ft 491 kts 174°
2026-05-04 02:31 16.99878 18.69220 38876 ft 491 kts 174°
2026-05-04 02:31 16.93160 18.70618 38875 ft 491 kts 174°
2026-05-04 02:32 16.86445 18.72014 38878 ft 492 kts 174°
2026-05-04 02:32 16.79723 18.73410 38876 ft 493 kts 174°
2026-05-04 02:33 16.72986 18.74808 38875 ft 493 kts 174°
2026-05-04 02:33 16.66293 18.76198 38873 ft 493 kts 174°
2026-05-04 02:34 16.59561 18.77593 38873 ft 493 kts 174°
2026-05-04 02:34 16.52819 18.78990 38870 ft 494 kts 174°
2026-05-04 02:35 16.46072 18.80386 38870 ft 495 kts 174°
2026-05-04 02:35 16.39291 18.81788 38867 ft 496 kts 174°
2026-05-04 02:36 16.32514 18.83190 38867 ft 496 kts 174°
2026-05-04 02:36 16.25771 18.84584 38865 ft 496 kts 174°
2026-05-04 02:37 16.18994 18.85983 38867 ft 496 kts 174°
2026-05-04 02:37 16.13356 18.87145 38862 ft 497 kts 173°
2026-05-04 02:38 16.05470 18.88770 38861 ft 497 kts 173°
2026-05-04 02:38 15.99790 18.89941 38860 ft 497 kts 173°
2026-05-04 02:39 15.93003 18.91339 38859 ft 497 kts 173°
2026-05-04 02:39 15.86254 18.92728 38857 ft 497 kts 173°
2026-05-04 02:40 15.79458 18.94124 38857 ft 497 kts 173°
2026-05-04 02:40 15.72663 18.95520 38855 ft 498 kts 173°
2026-05-04 02:41 15.65863 18.96917 38857 ft 498 kts 173°
2026-05-04 02:41 15.59064 18.98312 38854 ft 498 kts 173°
2026-05-04 02:42 15.52303 18.99698 38855 ft 498 kts 173°
2026-05-04 02:42 15.45500 19.01092 38853 ft 498 kts 172°
2026-05-04 02:43 15.38697 19.02485 38854 ft 498 kts 172°
2026-05-04 02:43 15.31898 19.03876 38851 ft 498 kts 172°
2026-05-04 02:44 15.25092 19.05268 38851 ft 498 kts 172°
2026-05-04 02:44 15.18288 19.06659 38851 ft 498 kts 172°
2026-05-04 02:45 15.11484 19.08048 38850 ft 498 kts 172°
2026-05-04 02:45 15.04735 19.09426 38851 ft 497 kts 172°
2026-05-04 02:46 14.97945 19.10811 38851 ft 497 kts 172°
2026-05-04 02:46 14.91149 19.12196 38848 ft 497 kts 172°
2026-05-04 02:47 14.84344 19.13582 38851 ft 499 kts 172°
2026-05-04 02:47 14.77529 19.14968 38850 ft 499 kts 172°
2026-05-04 02:48 14.70755 19.16345 38851 ft 499 kts 172°
2026-05-04 02:48 14.63934 19.17731 38851 ft 499 kts 172°
2026-05-04 02:49 14.57121 19.19114 38851 ft 498 kts 172°
2026-05-04 02:49 14.50315 19.20495 38848 ft 498 kts 172°
2026-05-04 02:50 14.43550 19.21866 38847 ft 498 kts 172°
2026-05-04 02:50 14.36739 19.23247 38848 ft 499 kts 172°
2026-05-04 02:51 14.29925 19.24627 38848 ft 499 kts 172°
2026-05-04 02:51 14.23117 19.26005 38851 ft 498 kts 172°
2026-05-04 02:52 14.16314 19.27380 38853 ft 498 kts 172°
2026-05-04 02:52 14.09509 19.28756 38851 ft 498 kts 172°
2026-05-04 02:53 14.02702 19.30131 38854 ft 497 kts 172°
2026-05-04 02:53 13.95908 19.31503 38853 ft 497 kts 172°
2026-05-04 02:54 13.89150 19.32868 38852 ft 497 kts 172°
2026-05-04 02:54 13.82342 19.34245 38852 ft 497 kts 172°
2026-05-04 02:55 13.72158 19.36295 38850 ft 497 kts 172°
2026-05-04 02:56 13.65363 19.37663 38850 ft 497 kts 172°
2026-05-04 02:56 13.58619 19.39020 38852 ft 497 kts 172°
2026-05-04 02:57 13.51833 19.40386 38851 ft 497 kts 172°
2026-05-04 02:57 13.45022 19.41756 38852 ft 497 kts 172°
2026-05-04 02:58 13.38211 19.43125 38851 ft 497 kts 172°
2026-05-04 02:58 13.31457 19.44482 38850 ft 497 kts 172°
2026-05-04 02:59 13.24653 19.45848 38851 ft 497 kts 172°
2026-05-04 02:59 13.17859 19.47211 38852 ft 498 kts 171°
2026-05-04 03:00 13.11045 19.48577 38849 ft 498 kts 171°
2026-05-04 03:00 13.04234 19.49942 38851 ft 499 kts 171°
2026-05-04 03:01 12.97412 19.51309 38853 ft 499 kts 171°
2026-05-04 03:01 12.90648 19.52668 38851 ft 499 kts 171°
2026-05-04 03:02 12.83804 19.54035 38851 ft 499 kts 171°
2026-05-04 03:02 12.77040 19.55386 38850 ft 499 kts 171°
2026-05-04 03:03 12.70226 19.56747 38851 ft 499 kts 171°
2026-05-04 03:03 12.63402 19.58110 38850 ft 499 kts 171°
2026-05-04 03:04 12.56571 19.59474 38853 ft 499 kts 171°
2026-05-04 03:04 12.49780 19.60830 38853 ft 499 kts 171°
2026-05-04 03:05 12.42954 19.62191 38857 ft 499 kts 171°
2026-05-04 03:05 12.36131 19.63550 38854 ft 499 kts 171°
2026-05-04 03:06 12.29311 19.64909 38856 ft 499 kts 171°
2026-05-04 03:06 12.22517 19.66262 38856 ft 499 kts 171°
2026-05-04 03:07 12.15698 19.67620 38856 ft 499 kts 171°
2026-05-04 03:07 12.08870 19.68978 38855 ft 499 kts 171°
2026-05-04 03:08 12.02046 19.70334 38853 ft 499 kts 171°
2026-05-04 03:08 11.95209 19.71692 38854 ft 499 kts 171°
2026-05-04 03:09 11.88423 19.73040 38853 ft 500 kts 171°
2026-05-04 03:09 11.81597 19.74395 38862 ft 499 kts 171°
2026-05-04 03:10 11.74763 19.75751 38860 ft 499 kts 171°
2026-05-04 03:10 11.67939 19.77104 38860 ft 500 kts 171°
2026-05-04 03:11 11.61112 19.78486 38873 ft 500 kts 169°
2026-05-04 03:11 11.54335 19.80133 38852 ft 500 kts 167°
2026-05-04 03:12 11.47604 19.81842 38859 ft 501 kts 167°
2026-05-04 03:12 11.40830 19.83527 38874 ft 501 kts 168°
2026-05-04 03:13 11.34040 19.85186 38862 ft 501 kts 168°
2026-05-04 03:13 11.27249 19.86836 38861 ft 501 kts 168°
2026-05-04 03:14 11.20494 19.88477 38859 ft 502 kts 168°
2026-05-04 03:14 11.13700 19.90128 38863 ft 502 kts 168°
2026-05-04 03:15 11.06901 19.91780 38864 ft 502 kts 168°
2026-05-04 03:15 11.00149 19.93420 38863 ft 502 kts 168°
2026-05-04 03:16 10.93356 19.95069 38864 ft 502 kts 167°
2026-05-04 03:16 10.86554 19.96720 38862 ft 502 kts 167°
2026-05-04 03:17 10.79748 19.98370 38871 ft 502 kts 167°
2026-05-04 03:17 10.72947 20.00019 38863 ft 502 kts 167°
2026-05-04 03:18 10.66187 20.01657 38869 ft 502 kts 167°
2026-05-04 03:18 10.59377 20.03306 38880 ft 502 kts 167°
2026-05-04 03:19 10.52626 20.04940 38864 ft 501 kts 167°
2026-05-04 03:19 10.45836 20.06584 38867 ft 501 kts 167°
2026-05-04 03:20 10.39050 20.08225 38867 ft 501 kts 167°
2026-05-04 03:20 10.32259 20.09867 38867 ft 501 kts 167°
2026-05-04 03:21 10.25492 20.11502 38869 ft 501 kts 167°
2026-05-04 03:21 10.18702 20.13142 38883 ft 501 kts 167°
2026-05-04 03:22 10.11904 20.14783 38870 ft 502 kts 167°
2026-05-04 03:22 10.05096 20.16426 38871 ft 503 kts 167°
2026-05-04 03:23 9.98330 20.18058 38872 ft 503 kts 167°
2026-05-04 03:23 9.91524 20.19699 38878 ft 503 kts 167°
2026-05-04 03:24 9.84724 20.21338 38886 ft 503 kts 167°
2026-05-04 03:24 9.77897 20.22983 38874 ft 503 kts 167°
2026-05-04 03:25 9.71084 20.24624 38874 ft 503 kts 167°
2026-05-04 03:25 9.64274 20.26263 38887 ft 503 kts 167°
2026-05-04 03:26 9.57502 20.27892 38879 ft 503 kts 167°
2026-05-04 03:26 9.50697 20.29529 38874 ft 502 kts 167°
2026-05-04 03:27 9.43890 20.31166 38879 ft 502 kts 167°
2026-05-04 03:27 9.37081 20.32802 38880 ft 502 kts 167°
2026-05-04 03:28 9.31428 20.34159 38868 ft 502 kts 167°
2026-05-04 03:28 9.23521 20.36058 38882 ft 502 kts 167°
2026-05-04 03:29 9.17825 20.37424 38875 ft 501 kts 167°
2026-05-04 03:29 9.11070 20.39045 38872 ft 501 kts 167°
2026-05-04 03:30 9.04272 20.40676 38877 ft 501 kts 167°
2026-05-04 03:30 8.97485 20.42303 38887 ft 501 kts 167°
2026-05-04 03:31 8.90686 20.43932 38880 ft 501 kts 167°
2026-05-04 03:31 8.83896 20.45559 38874 ft 502 kts 166°
2026-05-04 03:32 8.77130 20.47179 38885 ft 503 kts 166°
2026-05-04 03:32 8.70331 20.48806 38881 ft 501 kts 166°
2026-05-04 03:33 8.63517 20.50437 38887 ft 502 kts 166°
2026-05-04 03:33 8.56720 20.52063 38895 ft 502 kts 166°
2026-05-04 03:34 8.49924 20.53687 38894 ft 501 kts 166°
2026-05-04 03:34 8.43173 20.55301 38894 ft 501 kts 166°
2026-05-04 03:35 8.36384 20.56924 38906 ft 501 kts 166°
2026-05-04 03:35 8.29602 20.58543 38894 ft 501 kts 166°
2026-05-04 03:36 8.22821 20.60163 38896 ft 501 kts 166°
2026-05-04 03:36 8.16039 20.61781 38908 ft 501 kts 166°
2026-05-04 03:37 8.09266 20.63397 38912 ft 500 kts 166°
2026-05-04 03:37 8.02530 20.65004 38906 ft 500 kts 166°
2026-05-04 03:38 7.95771 20.66616 38919 ft 500 kts 166°
2026-05-04 03:38 7.89001 20.68225 38915 ft 500 kts 166°
2026-05-04 03:39 7.82236 20.69832 38913 ft 500 kts 166°
2026-05-04 03:39 7.75471 20.71440 38920 ft 498 kts 166°
2026-05-04 03:40 7.68725 20.73042 38920 ft 498 kts 166°
2026-05-04 03:40 7.61975 20.74645 38928 ft 498 kts 166°
2026-05-04 03:41 7.55234 20.76246 38922 ft 498 kts 166°
2026-05-04 03:41 7.48494 20.77846 38941 ft 498 kts 166°
2026-05-04 03:42 7.41791 20.79437 38928 ft 497 kts 166°
2026-05-04 03:42 7.35058 20.81034 38931 ft 496 kts 166°
2026-05-04 03:43 7.28344 20.82626 38928 ft 495 kts 166°
2026-05-04 03:43 7.21628 20.84218 38927 ft 495 kts 166°
2026-05-04 03:44 7.14962 20.85801 38930 ft 495 kts 166°
2026-05-04 03:44 7.08248 20.87399 38931 ft 495 kts 166°
2026-05-04 03:45 7.01543 20.88994 38927 ft 496 kts 166°
2026-05-04 03:45 6.94819 20.90593 38927 ft 496 kts 166°
2026-05-04 03:46 6.88097 20.92190 38929 ft 496 kts 166°
2026-05-04 03:46 6.81367 20.93789 38931 ft 496 kts 166°
2026-05-04 03:47 6.74645 20.95385 38931 ft 496 kts 166°
2026-05-04 03:47 6.67917 20.96983 38931 ft 496 kts 166°
2026-05-04 03:48 6.61235 20.98569 38930 ft 496 kts 166°
2026-05-04 03:48 6.54507 21.00166 38930 ft 496 kts 166°
2026-05-04 03:49 6.47786 21.01827 38932 ft 496 kts 165°
2026-05-04 03:49 6.41081 21.03525 38933 ft 496 kts 165°
2026-05-04 03:50 6.34378 21.05217 38935 ft 495 kts 165°
2026-05-04 03:50 6.27734 21.06884 38936 ft 495 kts 165°
2026-05-04 03:51 6.21036 21.08560 38930 ft 495 kts 165°
2026-05-04 03:51 6.14351 21.10233 38930 ft 495 kts 165°
2026-05-04 03:52 6.07662 21.11906 38931 ft 495 kts 165°
2026-05-04 03:52 6.00964 21.13582 38933 ft 495 kts 165°
2026-05-04 03:53 5.94307 21.15247 38934 ft 495 kts 165°
2026-05-04 03:53 5.87618 21.16920 38933 ft 495 kts 165°
2026-05-04 03:54 5.80928 21.18593 38933 ft 495 kts 165°
2026-05-04 03:54 5.74239 21.20265 38933 ft 495 kts 165°
2026-05-04 03:55 5.67591 21.21926 38938 ft 495 kts 165°
2026-05-04 03:55 5.60905 21.23596 38936 ft 494 kts 165°
2026-05-04 03:56 5.54241 21.25260 38936 ft 493 kts 165°
2026-05-04 03:56 5.47578 21.26925 38936 ft 493 kts 165°
2026-05-04 03:57 5.40915 21.28588 38936 ft 493 kts 165°
2026-05-04 03:57 5.34257 21.30249 38938 ft 493 kts 165°
2026-05-04 03:58 5.24296 21.32735 38936 ft 493 kts 165°
2026-05-04 03:58 5.17617 21.34401 38935 ft 493 kts 165°
2026-05-04 03:59 5.10952 21.36063 38938 ft 493 kts 165°
2026-05-04 03:59 5.04333 21.37714 38938 ft 493 kts 165°
2026-05-04 04:00 4.97661 21.39377 38941 ft 493 kts 165°
2026-05-04 04:00 4.90987 21.41040 38941 ft 494 kts 165°
2026-05-04 04:01 4.84313 21.42703 38938 ft 494 kts 165°
2026-05-04 04:01 4.77683 21.44355 38938 ft 494 kts 165°
2026-05-04 04:02 4.71009 21.46017 38938 ft 494 kts 165°
2026-05-04 04:02 4.64348 21.47676 38938 ft 494 kts 165°
2026-05-04 04:03 4.57684 21.49336 38938 ft 493 kts 165°
2026-05-04 04:03 4.51008 21.50998 38938 ft 493 kts 165°
2026-05-04 04:04 4.44350 21.52655 38938 ft 493 kts 165°
2026-05-04 04:04 4.37680 21.54314 38938 ft 493 kts 165°
2026-05-04 04:05 4.31005 21.55975 38938 ft 493 kts 165°
2026-05-04 04:05 4.24382 21.57623 38935 ft 493 kts 165°
2026-05-04 04:06 4.17713 21.59283 38939 ft 493 kts 166°
2026-05-04 04:06 4.11047 21.60939 38938 ft 493 kts 166°
2026-05-04 04:07 4.04386 21.62595 38935 ft 493 kts 166°
2026-05-04 04:07 3.97770 21.64239 38935 ft 493 kts 166°
2026-05-04 04:08 3.91111 21.65894 38940 ft 493 kts 166°
2026-05-04 04:08 3.84447 21.67550 38938 ft 492 kts 165°
2026-05-04 04:09 3.77799 21.69202 38939 ft 492 kts 165°
2026-05-04 04:09 3.71144 21.70855 38938 ft 492 kts 165°
2026-05-04 04:10 3.64546 21.72494 38939 ft 492 kts 165°
2026-05-04 04:10 3.57891 21.74147 38938 ft 492 kts 165°
2026-05-04 04:11 3.51190 21.75563 38937 ft 492 kts 169°
2026-05-04 04:11 3.44445 21.76781 38937 ft 492 kts 169°
2026-05-04 04:12 3.37701 21.78024 38935 ft 492 kts 169°
2026-05-04 04:12 3.30972 21.79308 38936 ft 492 kts 168°
2026-05-04 04:13 3.24236 21.80610 38937 ft 493 kts 168°
2026-05-04 04:13 3.17490 21.81916 38938 ft 493 kts 168°
2026-05-04 04:14 3.10783 21.83212 38936 ft 494 kts 168°
2026-05-04 04:14 3.04031 21.84516 38935 ft 494 kts 168°
2026-05-04 04:15 2.97284 21.85818 38935 ft 494 kts 168°
2026-05-04 04:15 2.90529 21.87121 38936 ft 494 kts 168°
2026-05-04 04:16 2.83824 21.88415 38940 ft 494 kts 168°
2026-05-04 04:16 2.77055 21.89721 38938 ft 495 kts 168°
2026-05-04 04:17 2.70326 21.91019 38934 ft 495 kts 168°
2026-05-04 04:17 2.63551 21.92326 38936 ft 495 kts 168°
2026-05-04 04:18 2.56776 21.93633 38939 ft 495 kts 168°
2026-05-04 04:18 2.51140 21.94720 38935 ft 495 kts 168°
2026-05-04 04:19 2.44364 21.96027 38935 ft 496 kts 168°
2026-05-04 04:19 2.37590 21.97333 38933 ft 496 kts 168°
2026-05-04 04:20 2.30801 21.98641 38934 ft 496 kts 168°
2026-05-04 04:20 2.24019 21.99949 38934 ft 496 kts 168°
2026-05-04 04:21 2.17231 22.01258 38931 ft 496 kts 168°
2026-05-04 04:21 2.10440 22.02564 38931 ft 497 kts 168°
2026-05-04 04:22 2.03638 22.03869 38934 ft 498 kts 168°
2026-05-04 04:22 1.96817 22.05181 38936 ft 499 kts 168°
2026-05-04 04:23 1.90046 22.06485 38933 ft 499 kts 168°
2026-05-04 04:23 1.83220 22.07800 38936 ft 499 kts 168°
2026-05-04 04:24 1.76440 22.09106 38933 ft 499 kts 168°
2026-05-04 04:24 1.69618 22.10420 38939 ft 498 kts 168°
2026-05-04 04:25 1.62806 22.11731 38939 ft 498 kts 168°
2026-05-04 04:25 1.55991 22.13044 38939 ft 498 kts 168°
2026-05-04 04:26 1.49191 22.14352 38940 ft 496 kts 168°
2026-05-04 04:26 1.42407 22.15659 38937 ft 495 kts 168°
2026-05-04 04:27 1.35682 22.16954 38938 ft 495 kts 168°
2026-05-04 04:27 1.28904 22.18259 38938 ft 495 kts 168°
2026-05-04 04:28 1.22137 22.19566 38938 ft 495 kts 168°
2026-05-04 04:28 1.15361 22.20870 38938 ft 495 kts 168°
2026-05-04 04:29 1.08590 22.22171 38941 ft 495 kts 168°
2026-05-04 04:29 1.01861 22.23466 38941 ft 495 kts 167°
2026-05-04 04:30 0.95084 22.24771 38945 ft 496 kts 167°
2026-05-04 04:30 0.88294 22.26079 38944 ft 496 kts 167°
2026-05-04 04:31 0.81505 22.27386 38944 ft 496 kts 167°
2026-05-04 04:31 0.74732 22.28690 38944 ft 496 kts 167°
2026-05-04 04:32 0.67991 22.29988 38940 ft 495 kts 167°
2026-05-04 04:32 0.61209 22.31296 38941 ft 495 kts 167°
2026-05-04 04:33 0.54438 22.32596 38940 ft 495 kts 167°
2026-05-04 04:33 0.47666 22.33892 38944 ft 495 kts 167°
2026-05-04 04:34 0.40943 22.35179 38941 ft 495 kts 167°
2026-05-04 04:34 0.34175 22.36477 38940 ft 495 kts 167°
2026-05-04 04:35 0.27438 22.37770 38943 ft 492 kts 167°
2026-05-04 04:35 0.20714 22.39068 38945 ft 491 kts 167°
2026-05-04 04:36 0.13995 22.40366 38942 ft 491 kts 167°
2026-05-04 04:36 0.07275 22.41664 38943 ft 491 kts 167°
2026-05-04 04:37 -0.06162 22.44257 38935 ft 492 kts 167°
2026-05-04 04:38 -0.12855 22.45542 38937 ft 492 kts 167°
2026-05-04 04:38 -0.19583 22.46835 38956 ft 492 kts 167°
2026-05-04 04:39 -0.26313 22.48129 38948 ft 492 kts 167°
2026-05-04 04:39 -0.33046 22.49425 38938 ft 492 kts 167°
2026-05-04 04:40 -0.39783 22.50722 38945 ft 493 kts 167°
2026-05-04 04:40 -0.46525 22.52019 38935 ft 493 kts 167°
2026-05-04 04:41 -0.53212 22.53306 38940 ft 493 kts 167°
2026-05-04 04:41 -0.59984 22.54608 38934 ft 493 kts 167°
2026-05-04 04:42 -0.66676 22.55896 38954 ft 493 kts 167°
2026-05-04 04:42 -0.73406 22.57191 38939 ft 493 kts 167°
2026-05-04 04:43 -0.80135 22.58486 38938 ft 492 kts 167°
2026-05-04 04:43 -0.86869 22.59783 39070 ft 492 kts 167°
2026-05-04 04:44 -0.90234 22.60431 39203 ft 492 kts 167°
2026-05-04 04:44 -0.93575 22.61075 39349 ft 492 kts 167°
2026-05-04 04:44 -0.96935 22.61721 39486 ft 492 kts 167°
2026-05-04 04:44 -1.00301 22.62369 39644 ft 492 kts 167°
2026-05-04 04:45 -1.03663 22.63016 39783 ft 492 kts 167°
2026-05-04 04:45 -1.07026 22.63663 39936 ft 492 kts 167°
2026-05-04 04:45 -1.10384 22.64309 40122 ft 490 kts 167°
2026-05-04 04:47 -1.30465 22.68175 40859 ft 489 kts 168°
2026-05-04 04:47 -1.37155 22.69463 40936 ft 489 kts 168°
2026-05-04 04:48 -1.43800 22.70741 40936 ft 489 kts 168°
2026-05-04 04:49 -1.60492 22.73955 40936 ft 488 kts 168°
2026-05-04 04:49 -1.67161 22.75239 40937 ft 488 kts 168°
2026-05-04 04:50 -1.73824 22.76523 40934 ft 488 kts 168°
2026-05-04 04:50 -1.80508 22.77810 40935 ft 488 kts 168°
2026-05-04 04:51 -1.87133 22.79086 40934 ft 487 kts 168°
2026-05-04 04:51 -1.93802 22.80371 40934 ft 487 kts 168°
2026-05-04 04:52 -2.00468 22.81655 40936 ft 487 kts 168°
2026-05-04 04:52 -2.07097 22.82932 40936 ft 487 kts 168°
2026-05-04 04:53 -2.13760 22.84216 40936 ft 487 kts 168°
2026-05-04 04:53 -2.20426 22.85500 40940 ft 487 kts 168°
2026-05-04 04:54 -2.27066 22.86780 40943 ft 488 kts 168°
2026-05-04 04:54 -2.33735 22.88065 40935 ft 487 kts 168°
2026-05-04 04:55 -2.40402 22.89350 40936 ft 487 kts 168°
2026-05-04 04:55 -2.47065 22.90635 40936 ft 488 kts 168°
2026-05-04 04:56 -2.53733 22.91920 40949 ft 488 kts 168°
2026-05-04 04:56 -2.60355 22.93197 40939 ft 488 kts 168°
2026-05-04 04:57 -2.67040 22.94485 40944 ft 488 kts 168°
2026-05-04 04:57 -2.73716 22.95773 40943 ft 488 kts 168°
2026-05-04 04:58 -2.80339 22.97051 40936 ft 488 kts 168°
2026-05-04 04:58 -2.87005 22.98337 40939 ft 488 kts 168°
2026-05-04 04:59 -2.93673 22.99623 40939 ft 487 kts 168°
2026-05-04 04:59 -3.00334 23.00908 40938 ft 487 kts 168°
2026-05-04 05:00 -3.06998 23.02194 40939 ft 488 kts 168°
2026-05-04 05:01 -3.16996 23.04124 40942 ft 488 kts 168°
2026-05-04 05:01 -3.23653 23.05409 40941 ft 487 kts 168°
2026-05-04 05:02 -3.30306 23.06693 40935 ft 487 kts 168°
2026-05-04 05:02 -3.36958 23.07981 40936 ft 487 kts 168°
2026-05-04 05:03 -3.43605 23.09264 40934 ft 487 kts 168°
2026-05-04 05:04 -3.56869 23.11822 40938 ft 486 kts 168°
2026-05-04 05:04 -3.63518 23.13107 40934 ft 486 kts 168°
2026-05-04 05:06 -3.88971 23.18026 40942 ft 486 kts 168°
2026-05-04 05:07 -3.95624 23.19312 40942 ft 486 kts 168°
2026-05-04 05:07 -4.02276 23.20599 40938 ft 486 kts 168°
2026-05-04 05:09 -4.32244 23.25746 40933 ft 486 kts 170°
2026-05-04 05:10 -4.38913 23.26883 40939 ft 486 kts 170°
2026-05-04 05:10 -4.45571 23.28018 40943 ft 485 kts 170°
2026-05-04 05:11 -4.52196 23.29147 40938 ft 486 kts 170°
2026-05-04 05:11 -4.58867 23.30284 40938 ft 486 kts 169°
2026-05-04 05:12 -4.65535 23.31421 40939 ft 486 kts 169°
2026-05-04 05:12 -4.72200 23.32557 40935 ft 486 kts 169°
2026-05-04 05:13 -4.78868 23.33694 40945 ft 486 kts 169°
2026-05-04 05:13 -4.85535 23.34832 40939 ft 486 kts 169°
2026-05-04 05:14 -4.92176 23.35964 40942 ft 486 kts 170°
2026-05-04 05:14 -4.98847 23.37103 40938 ft 486 kts 170°
2026-05-04 05:15 -5.05526 23.38242 40949 ft 486 kts 170°
2026-05-04 05:15 -5.12152 23.39373 40944 ft 486 kts 170°
2026-05-04 05:16 -5.18826 23.40517 40944 ft 486 kts 170°
2026-05-04 05:16 -5.25504 23.41655 40930 ft 486 kts 170°
2026-05-04 05:17 -5.32194 23.42796 40953 ft 487 kts 170°
2026-05-04 05:17 -5.38866 23.43935 40944 ft 487 kts 170°
2026-05-04 05:18 -5.45553 23.45077 40943 ft 487 kts 170°
2026-05-04 05:18 -5.52242 23.46221 40936 ft 487 kts 170°
2026-05-04 05:19 -5.58889 23.47361 40946 ft 487 kts 170°
2026-05-04 05:19 -5.65567 23.48518 40944 ft 487 kts 169°
2026-05-04 05:20 -5.72249 23.49677 40951 ft 487 kts 169°
2026-05-04 05:20 -5.78895 23.50829 40947 ft 487 kts 169°
2026-05-04 05:21 -5.85582 23.51988 40939 ft 487 kts 169°
2026-05-04 05:21 -5.92264 23.53146 40953 ft 487 kts 169°
2026-05-04 05:22 -5.98901 23.54296 40950 ft 487 kts 169°
2026-05-04 05:22 -6.05585 23.55454 40957 ft 487 kts 169°
2026-05-04 05:23 -6.12274 23.56614 40942 ft 487 kts 169°
2026-05-04 05:23 -6.18886 23.58099 40948 ft 486 kts 165°
2026-05-04 05:24 -6.25432 23.59846 40957 ft 486 kts 165°
2026-05-04 05:24 -6.31982 23.61562 40964 ft 487 kts 165°
2026-05-04 05:25 -6.38519 23.63218 40953 ft 487 kts 165°
2026-05-04 05:25 -6.45106 23.64864 40966 ft 487 kts 165°
2026-05-04 05:26 -6.51687 23.66506 40950 ft 487 kts 165°
2026-05-04 05:26 -6.58274 23.68152 40964 ft 487 kts 165°
2026-05-04 05:28 -6.84598 23.74744 40972 ft 488 kts 165°
2026-05-04 05:29 -6.91196 23.76397 40969 ft 488 kts 165°
2026-05-04 05:29 -6.97784 23.78048 40974 ft 488 kts 165°
2026-05-04 05:31 -7.24144 23.84660 40988 ft 489 kts 165°
2026-05-04 05:32 -7.30762 23.86271 40977 ft 489 kts 166°
2026-05-04 05:33 -7.40728 23.88516 40988 ft 489 kts 166°
2026-05-04 05:33 -7.47333 23.90013 40983 ft 489 kts 166°
2026-05-04 05:34 -7.53971 23.91532 41000 ft 489 kts 166°
2026-05-04 05:34 -7.60615 23.93059 40993 ft 489 kts 166°
2026-05-04 05:35 -7.67255 23.94585 40997 ft 489 kts 166°
2026-05-04 05:35 -7.73892 23.96111 40989 ft 489 kts 166°
2026-05-04 05:36 -7.80503 23.97630 41002 ft 489 kts 166°
2026-05-04 05:36 -7.87143 23.99157 40999 ft 490 kts 166°
2026-05-04 05:37 -7.93782 24.00683 41004 ft 490 kts 166°
2026-05-04 05:37 -8.00426 24.02212 40999 ft 490 kts 166°
2026-05-04 05:38 -8.10367 24.04646 41009 ft 490 kts 164°
2026-05-04 05:38 -8.16906 24.06448 41003 ft 489 kts 164°
2026-05-04 05:39 -8.26779 24.09144 41015 ft 490 kts 164°
2026-05-04 05:40 -8.36689 24.11804 41020 ft 490 kts 164°
2026-05-04 05:40 -8.43252 24.13563 41013 ft 491 kts 164°
2026-05-04 05:41 -8.49856 24.15335 41023 ft 491 kts 164°
2026-05-04 05:41 -8.56461 24.17108 41015 ft 491 kts 164°
2026-05-04 05:42 -8.63070 24.18883 41021 ft 491 kts 164°
2026-05-04 05:42 -8.69668 24.20656 41022 ft 491 kts 164°
2026-05-04 05:43 -8.76273 24.22431 41027 ft 491 kts 164°
2026-05-04 05:45 -9.02628 24.29521 41030 ft 492 kts 164°
2026-05-04 05:47 -9.29141 24.36560 41030 ft 492 kts 165°
2026-05-04 05:47 -9.35798 24.38226 41029 ft 493 kts 165°
2026-05-04 05:48 -9.42454 24.39906 41022 ft 493 kts 165°
2026-05-04 05:48 -9.49105 24.41596 41028 ft 493 kts 165°
2026-05-04 05:49 -9.55732 24.43284 41023 ft 493 kts 165°
2026-05-04 05:49 -9.62388 24.44979 41025 ft 493 kts 165°
2026-05-04 05:51 -9.89036 24.51772 41028 ft 494 kts 165°
2026-05-04 05:52 -9.94573 24.53185 41037 ft 494 kts 165°
2026-05-04 05:52 -10.02329 24.55165 41030 ft 495 kts 165°
2026-05-04 05:54 -10.27926 24.61716 41039 ft 495 kts 165°
2026-05-04 05:55 -10.34610 24.63429 41045 ft 495 kts 165°
2026-05-04 05:55 -10.41297 24.65142 41056 ft 495 kts 165°
2026-05-04 05:56 -10.47978 24.66856 41051 ft 495 kts 165°
2026-05-04 05:56 -10.54612 24.68557 41052 ft 495 kts 165°
2026-05-04 05:57 -10.61295 24.70272 41054 ft 495 kts 165°
2026-05-04 05:57 -10.67979 24.71989 41064 ft 495 kts 165°
2026-05-04 05:58 -10.74655 24.73703 41075 ft 495 kts 165°
2026-05-04 05:58 -10.81321 24.75417 41069 ft 495 kts 165°
2026-05-04 05:59 -10.88009 24.77136 41073 ft 495 kts 165°
2026-05-04 05:59 -10.94680 24.78852 41073 ft 495 kts 165°
2026-05-04 06:00 -11.01357 24.80570 41089 ft 495 kts 165°
2026-05-04 06:00 -11.08012 24.82283 41089 ft 495 kts 165°
2026-05-04 06:01 -11.14707 24.84008 41098 ft 496 kts 165°
2026-05-04 06:03 -11.41412 24.90896 41106 ft 496 kts 165°
2026-05-04 06:05 -11.71498 24.98666 41117 ft 497 kts 165°
2026-05-04 06:06 -11.78214 25.00401 41119 ft 497 kts 165°
2026-05-04 06:06 -11.84934 25.02139 41115 ft 497 kts 165°
2026-05-04 06:07 -11.91612 25.03867 41116 ft 499 kts 165°
2026-05-04 06:07 -11.98358 25.05613 41116 ft 499 kts 165°
2026-05-04 06:08 -12.05051 25.07347 41119 ft 498 kts 165°
2026-05-04 06:08 -12.11769 25.09088 41118 ft 498 kts 165°
2026-05-04 06:09 -12.18496 25.10833 41109 ft 498 kts 165°
2026-05-04 06:11 -12.45297 25.17789 41119 ft 496 kts 165°
2026-05-04 06:13 -12.72055 25.24750 41112 ft 496 kts 165°
2026-05-04 06:14 -12.95485 25.30858 41113 ft 497 kts 166°
2026-05-04 06:15 -13.02192 25.32608 41114 ft 498 kts 166°
2026-05-04 06:15 -13.08912 25.34363 41112 ft 498 kts 166°
2026-05-04 06:16 -13.15665 25.36127 41112 ft 499 kts 166°
2026-05-04 06:16 -13.22394 25.37887 41113 ft 499 kts 166°
2026-05-04 06:17 -13.29089 25.39638 41114 ft 499 kts 166°
2026-05-04 06:17 -13.35814 25.41398 41113 ft 497 kts 166°
2026-05-04 06:18 -13.42529 25.43157 41114 ft 498 kts 166°
2026-05-04 06:20 -13.69399 25.50210 41119 ft 497 kts 166°
2026-05-04 06:21 -13.86129 25.54611 41122 ft 497 kts 166°
2026-05-04 06:22 -13.92839 25.56377 41126 ft 497 kts 166°
2026-05-04 06:25 -14.39692 25.68744 41131 ft 496 kts 166°
2026-05-04 06:26 -14.46384 25.70515 41132 ft 496 kts 166°
2026-05-04 06:26 -14.53075 25.72286 41133 ft 496 kts 166°
2026-05-04 06:27 -14.69754 25.76706 41132 ft 496 kts 166°
2026-05-04 06:28 -14.76453 25.78484 41129 ft 496 kts 166°
2026-05-04 06:28 -14.83140 25.80259 41127 ft 495 kts 166°
2026-05-04 06:29 -14.89820 25.82034 41128 ft 494 kts 166°
2026-05-04 06:29 -14.96486 25.83806 41130 ft 494 kts 166°
2026-05-04 06:30 -15.03118 25.85570 41129 ft 494 kts 166°
2026-05-04 06:30 -15.09785 25.87345 41125 ft 494 kts 166°
2026-05-04 06:31 -15.16445 25.89119 41127 ft 494 kts 166°
2026-05-04 06:31 -15.23075 25.90886 41127 ft 494 kts 166°
2026-05-04 06:33 -15.49702 25.98002 41130 ft 494 kts 166°
2026-05-04 06:34 -15.56380 25.99792 41128 ft 494 kts 166°
2026-05-04 06:34 -15.63001 26.01567 41132 ft 494 kts 166°
2026-05-04 06:36 -15.89651 26.08727 41134 ft 494 kts 167°
2026-05-04 06:37 -15.96276 26.10509 41141 ft 494 kts 167°
2026-05-04 06:37 -16.02945 26.12305 41140 ft 494 kts 167°
2026-05-04 06:38 -16.09602 26.14099 41134 ft 494 kts 167°
2026-05-04 06:40 -16.35098 26.20981 41145 ft 494 kts 167°
2026-05-04 06:40 -16.41745 26.22778 41138 ft 493 kts 167°
2026-05-04 06:41 -16.48349 26.24565 41144 ft 493 kts 167°
2026-05-04 06:41 -16.54991 26.26364 41146 ft 493 kts 167°
2026-05-04 06:42 -16.61648 26.28168 41147 ft 494 kts 167°
2026-05-04 06:44 -16.88167 26.35343 41161 ft 492 kts 167°
2026-05-04 06:44 -16.94807 26.37127 41161 ft 492 kts 167°
2026-05-04 06:45 -17.01446 26.38913 41162 ft 492 kts 167°
2026-05-04 06:45 -17.08087 26.40703 41158 ft 492 kts 167°
2026-05-04 06:46 -17.14729 26.42494 41170 ft 492 kts 167°
2026-05-04 06:46 -17.21358 26.44283 41170 ft 492 kts 167°
2026-05-04 06:48 -17.47928 26.51095 41169 ft 492 kts 168°
2026-05-04 06:50 -17.74520 26.57904 41159 ft 492 kts 168°
2026-05-04 06:51 -17.81174 26.59611 41156 ft 492 kts 168°
2026-05-04 06:51 -17.87834 26.61321 41161 ft 492 kts 168°
2026-05-04 06:52 -17.94498 26.63033 41158 ft 492 kts 168°
2026-05-04 06:52 -18.01123 26.64737 41164 ft 492 kts 168°
2026-05-04 06:53 -18.07781 26.66453 41153 ft 492 kts 168°
2026-05-04 06:53 -18.14450 26.68171 41174 ft 492 kts 169°
2026-05-04 06:54 -18.21077 26.69877 41168 ft 493 kts 169°
2026-05-04 06:54 -18.27751 26.71597 41168 ft 493 kts 169°
2026-05-04 06:55 -18.34425 26.73319 41181 ft 493 kts 169°
2026-05-04 06:55 -18.41102 26.75044 41175 ft 493 kts 169°
2026-05-04 06:57 -18.67742 26.81944 41205 ft 493 kts 169°
2026-05-04 06:58 -18.74415 26.83672 41206 ft 493 kts 169°
2026-05-04 06:58 -18.81082 26.85400 41209 ft 493 kts 169°
2026-05-04 06:59 -18.87705 26.87120 41206 ft 493 kts 169°
2026-05-04 06:59 -18.94362 26.88850 41215 ft 492 kts 169°
2026-05-04 07:01 -19.20991 26.95788 41198 ft 492 kts 169°
2026-05-04 07:02 -19.27576 26.97504 41202 ft 492 kts 169°
2026-05-04 07:02 -19.34256 26.99248 41206 ft 492 kts 169°
2026-05-04 07:03 -19.40907 27.00986 41206 ft 492 kts 169°
2026-05-04 07:03 -19.47555 27.02731 41209 ft 492 kts 169°
2026-05-04 07:04 -19.54211 27.04475 41204 ft 492 kts 169°
2026-05-04 07:04 -19.60832 27.06210 41206 ft 493 kts 169°
2026-05-04 07:05 -19.67493 27.07959 41207 ft 492 kts 169°
2026-05-04 07:05 -19.74151 27.09709 41209 ft 492 kts 169°
2026-05-04 07:06 -19.84129 27.12335 41209 ft 492 kts 169°
2026-05-04 07:07 -19.90743 27.14077 41208 ft 492 kts 169°
2026-05-04 07:09 -20.17346 27.21088 41203 ft 492 kts 169°
2026-05-04 07:09 -20.23987 27.22841 41201 ft 492 kts 169°
2026-05-04 07:10 -20.30584 27.24584 41207 ft 492 kts 169°
2026-05-04 07:12 -20.57155 27.31626 41200 ft 492 kts 169°
2026-05-04 07:12 -20.63813 27.33395 41200 ft 492 kts 169°
2026-05-04 07:13 -20.70459 27.35162 41198 ft 492 kts 169°
2026-05-04 07:13 -20.77097 27.36929 41209 ft 492 kts 169°
2026-05-04 07:14 -20.93691 27.41351 41200 ft 493 kts 169°
2026-05-04 07:15 -21.00346 27.43128 41200 ft 493 kts 169°
2026-05-04 07:15 -21.07013 27.44910 41201 ft 493 kts 170°
2026-05-04 07:16 -21.13680 27.46690 41200 ft 493 kts 170°
2026-05-04 07:16 -21.20379 27.47684 41205 ft 488 kts 179°
2026-05-04 07:17 -21.27130 27.48240 41204 ft 486 kts 180°
2026-05-04 07:17 -21.33881 27.48721 41209 ft 486 kts 180°
2026-05-04 07:18 -21.40632 27.49206 41202 ft 486 kts 180°
2026-05-04 07:18 -21.47395 27.49705 41205 ft 486 kts 180°
2026-05-04 07:19 -21.54143 27.50208 41202 ft 486 kts 180°
2026-05-04 07:19 -21.60859 27.50711 41199 ft 486 kts 180°
2026-05-04 07:20 -21.67616 27.51217 41200 ft 486 kts 180°
2026-05-04 07:20 -21.74386 27.51725 41199 ft 486 kts 180°
2026-05-04 07:22 -22.01376 27.53751 41195 ft 487 kts 180°
2026-05-04 07:23 -22.08139 27.54259 41192 ft 487 kts 180°
2026-05-04 07:23 -22.14903 27.54769 41192 ft 487 kts 180°
2026-05-04 07:24 -22.21673 27.55280 41193 ft 487 kts 181°
2026-05-04 07:24 -22.28431 27.55789 41185 ft 487 kts 181°
2026-05-04 07:26 -22.55468 27.57835 41179 ft 487 kts 181°
2026-05-04 07:27 -22.61098 27.58261 41179 ft 487 kts 181°
2026-05-04 07:27 -22.67863 27.58775 41173 ft 487 kts 181°
2026-05-04 07:28 -22.74631 27.59289 41178 ft 487 kts 181°
2026-05-04 07:28 -22.81393 27.59803 41178 ft 487 kts 181°
2026-05-04 07:29 -22.88121 27.60315 41180 ft 487 kts 181°
2026-05-04 07:29 -22.94891 27.60831 41180 ft 487 kts 181°
2026-05-04 07:30 -23.01637 27.61345 41178 ft 487 kts 181°
2026-05-04 07:30 -23.08411 27.61863 41183 ft 487 kts 181°
2026-05-04 07:31 -23.15176 27.62380 41173 ft 487 kts 181°
2026-05-04 07:33 -23.41875 27.60768 41181 ft 481 kts 189°
2026-05-04 07:33 -23.48574 27.60324 41180 ft 482 kts 188°
2026-05-04 07:34 -23.55274 27.59907 41184 ft 482 kts 189°
2026-05-04 07:34 -23.61977 27.59458 41201 ft 481 kts 189°
2026-05-04 07:35 -23.68618 27.58992 41188 ft 481 kts 189°
2026-05-04 07:35 -23.75301 27.58519 41189 ft 481 kts 189°
2026-05-04 07:36 -23.81768 27.58061 41189 ft 481 kts 189°
2026-05-04 07:38 -24.07311 27.56254 41200 ft 481 kts 189°
2026-05-04 07:38 -24.13949 27.55783 41207 ft 481 kts 189°
2026-05-04 07:39 -24.20628 27.55309 41204 ft 481 kts 189°
2026-05-04 07:39 -24.27305 27.54834 41208 ft 481 kts 189°
2026-05-04 07:40 -24.34001 27.54358 41204 ft 481 kts 189°
2026-05-04 07:40 -24.40681 27.53882 41202 ft 481 kts 189°
2026-05-04 07:41 -24.47368 27.53405 41203 ft 481 kts 189°
2026-05-04 07:41 -24.54067 27.52927 41204 ft 481 kts 189°
2026-05-04 07:42 -24.60702 27.52453 41212 ft 481 kts 189°
2026-05-04 07:42 -24.67396 27.51975 41205 ft 481 kts 189°
2026-05-04 07:43 -24.74076 27.51497 40960 ft 481 kts 189°
2026-05-04 07:43 -24.77416 27.51257 40749 ft 481 kts 189°
2026-05-04 07:43 -24.80767 27.51017 40495 ft 482 kts 189°
2026-05-04 07:44 -24.84126 27.50775 40212 ft 481 kts 190°
2026-05-04 07:44 -24.87456 27.50538 39695 ft 479 kts 190°
2026-05-04 07:44 -24.90778 27.50301 39071 ft 478 kts 190°
2026-05-04 07:44 -24.94104 27.50062 38333 ft 479 kts 190°
2026-05-04 07:45 -24.97438 27.49820 37510 ft 481 kts 189°
2026-05-04 07:45 -25.00793 27.49575 36689 ft 483 kts 189°
2026-05-04 07:45 -25.04156 27.49330 35882 ft 486 kts 189°
2026-05-04 07:45 -25.07546 27.49086 35070 ft 489 kts 188°
2026-05-04 07:46 -25.10906 27.48844 34295 ft 492 kts 188°
2026-05-04 07:46 -25.14326 27.48598 33385 ft 494 kts 188°
2026-05-04 07:46 -25.17773 27.48350 32434 ft 497 kts 187°
2026-05-04 07:46 -25.21239 27.48100 31515 ft 501 kts 187°
2026-05-04 07:47 -25.24727 27.47849 30584 ft 504 kts 187°
2026-05-04 07:47 -25.28238 27.47595 29560 ft 507 kts 187°
2026-05-04 07:47 -25.31754 27.47343 28659 ft 505 kts 187°
2026-05-04 07:49 -25.55095 27.45662 25802 ft 441 kts 188°
2026-05-04 07:49 -25.58116 27.45443 25637 ft 429 kts 188°
2026-05-04 07:49 -25.61048 27.45232 25545 ft 415 kts 188°
2026-05-04 07:50 -25.63856 27.45028 25452 ft 402 kts 188°
2026-05-04 07:50 -25.66609 27.44829 25346 ft 390 kts 188°
2026-05-04 07:50 -25.69301 27.44879 25220 ft 387 kts 175°
2026-05-04 07:50 -25.71859 27.45859 25003 ft 394 kts 152°
2026-05-04 07:51 -25.73944 27.47827 24788 ft 394 kts 129°
2026-05-04 07:51 -25.75463 27.50340 24468 ft 391 kts 121°
2026-05-04 07:51 -25.76853 27.52940 24080 ft 390 kts 121°
2026-05-04 07:51 -25.78242 27.55521 23636 ft 389 kts 121°
2026-05-04 07:52 -25.79629 27.58059 23197 ft 387 kts 122°
2026-05-04 07:52 -25.81031 27.60597 22776 ft 385 kts 122°
2026-05-04 07:52 -25.82425 27.63110 22130 ft 380 kts 121°
2026-05-04 07:52 -25.83810 27.65599 21333 ft 377 kts 121°
2026-05-04 07:53 -25.85186 27.68069 20555 ft 374 kts 121°
2026-05-04 07:54 -25.94312 27.84457 15821 ft 340 kts 120°
2026-05-04 07:55 -25.95532 27.86651 15565 ft 338 kts 120°
2026-05-04 07:55 -25.96760 27.88860 15338 ft 335 kts 120°
2026-05-04 07:55 -25.97982 27.91058 15099 ft 333 kts 121°
2026-05-04 07:55 -25.99193 27.93239 14864 ft 331 kts 121°
2026-05-04 07:56 -26.00400 27.95413 14632 ft 329 kts 121°
2026-05-04 07:56 -26.01597 27.97571 14403 ft 327 kts 121°
2026-05-04 07:56 -26.02788 27.99718 14184 ft 324 kts 121°
2026-05-04 07:56 -26.03949 28.01811 14089 ft 312 kts 120°
2026-05-04 07:57 -26.05066 28.03825 13959 ft 300 kts 120°
2026-05-04 07:57 -26.06127 28.05740 13837 ft 280 kts 119°
2026-05-04 07:57 -26.07175 28.07526 13685 ft 275 kts 127°
2026-05-04 07:57 -26.08625 28.08877 13442 ft 273 kts 154°
2026-05-04 07:58 -26.10421 28.09428 13202 ft 271 kts 173°
2026-05-04 07:58 -26.12297 28.09679 12953 ft 272 kts 175°
2026-05-04 07:58 -26.14178 28.09765 12697 ft 268 kts 188°
2026-05-04 07:58 -26.15962 28.09270 12457 ft 261 kts 202°
2026-05-04 07:59 -26.17639 28.08590 12346 ft 251 kts 203°
2026-05-04 07:59 -26.19244 28.07925 12155 ft 244 kts 204°
2026-05-04 07:59 -26.20842 28.07266 11786 ft 246 kts 203°
2026-05-04 07:59 -26.22427 28.06619 11493 ft 238 kts 203°
2026-05-04 08:00 -26.23972 28.05992 11000 ft 235 kts 204°
2026-05-04 08:00 -26.25501 28.05374 10524 ft 231 kts 204°
2026-05-04 08:00 -26.27000 28.04768 10177 ft 227 kts 204°
2026-05-04 08:02 -26.35258 28.08042 8012 ft 227 kts 104°
2026-05-04 08:02 -26.35670 28.09742 7952 ft 228 kts 104°
2026-05-04 08:02 -26.36076 28.11453 7947 ft 227 kts 104°
2026-05-04 08:03 -26.36393 28.13174 7948 ft 226 kts 95°
2026-05-04 08:03 -26.36235 28.14893 7960 ft 222 kts 68°
2026-05-04 08:03 -26.35618 28.16456 7952 ft 220 kts 60°
2026-05-04 08:03 -26.34922 28.17960 7949 ft 212 kts 59°
2026-05-04 08:04 -26.34001 28.19119 7967 ft 198 kts 32°
2026-05-04 08:04 -26.32796 28.19774 7967 ft 191 kts 11°
2026-05-04 08:04 -26.31511 28.20120 7956 ft 190 kts
2026-05-04 08:04 -26.30239 28.20504 7954 ft 188 kts 11°
2026-05-04 08:05 -26.29004 28.20899 7944 ft 184 kts 11°
2026-05-04 08:05 -26.27774 28.21296 7765 ft 183 kts 11°
2026-05-04 08:05 -26.26558 28.21676 7521 ft 180 kts 11°
2026-05-04 08:05 -26.25369 28.22046 7291 ft 177 kts 11°
2026-05-04 08:06 -26.24211 28.22408 7090 ft 168 kts 11°
2026-05-04 08:06 -26.23108 28.22751 6889 ft 162 kts 10°
2026-05-04 08:06 -26.22041 28.23083 6693 ft 157 kts 11°
2026-05-04 08:06 -26.21013 28.23404 6492 ft 149 kts 11°
2026-05-04 08:08 -26.14930 28.25291 5515 ft 30 kts 14°
2026-05-04 08:08 -26.14754 28.25321 5511 ft 24 kts
2026-05-04 08:10 -26.14440 28.25173 5518 ft 19 kts 316°
2026-05-04 08:11 -26.14345 28.25071 5530 ft 18 kts 316°
2026-05-04 08:11 -26.14143 28.24852 5548 ft 26 kts 316°
2026-05-04 08:11 -26.14010 28.24707 5545 ft 27 kts 316°
2026-05-04 08:12 -26.13876 28.24563 5541 ft 27 kts 315°
2026-05-04 08:12 -26.13751 28.24427 5550 ft 24 kts 315°
2026-05-04 08:12 -26.13675 28.24345 5551 ft 0 kts 316°
2026-05-04 08:13 -26.13669 28.24339 5551 ft 3 kts 316°
2026-05-04 08:13 -26.13638 28.24305 5550 ft 10 kts 316°
2026-05-04 08:13 -26.13599 28.24263 5550 ft 14 kts 316°
2026-05-04 08:13 -26.13523 28.24180 5551 ft 13 kts 316°
2026-05-04 08:14 -26.13470 28.24123 5555 ft 8 kts 315°
2026-05-04 08:14 -26.13444 28.24095 5558 ft 3 kts 315°
2026-05-04 08:14 -26.13440 28.24090 5559 ft 0 kts 315°
2026-05-04 08:16 -26.13002 28.23740 5554 ft 8 kts 15°
2026-05-04 08:16 -26.12937 28.23761 5553 ft 11 kts 15°
2026-05-04 08:16 -26.12861 28.23771 5554 ft 8 kts 341°
2026-05-04 08:17 -26.12835 28.23730 5557 ft 7 kts 287°
2026-05-04 08:17 -26.12827 28.23667 5555 ft 10 kts 277°
2026-05-04 08:17 -26.12823 28.23631 5555 ft 0 kts 274°
2026-05-04 08:19 -26.12854 28.23587 5556 ft 0 kts 193°
2026-05-04 08:19 -26.12866 28.23584 5556 ft 5 kts 192°
2026-05-04 08:20 -26.12901 28.23578 5556 ft 5 kts 187°
2026-05-04 08:20 -26.12918 28.23576 5555 ft 1 kts 188°
2026-05-04 08:20 -26.12922 28.23575 5555 ft 0 kts 185°